| time (UTC) | temp C | wind direction | speed KPH | gust KPH | rain 1hr cm | rain 24hr cm | rain mn cm | humidity % | barometer mb |
| 20260507020303 | 7 | 0 | 0.0 | 0.0 | 0.00 | 0.10 | 0.00 | 99 | 1013.0 |
| 20260507020203 | 7 | 0 | 0.0 | 0.0 | 0.00 | 0.10 | 0.00 | 98 | 1013.1 |
| 20260507020024 | 7 | 50 | 0.0 | 3.2 | 0.00 | 0.10 | 0.00 | 98 | 1013.0 |
| 20260507015903 | 7 | 50 | 0.0 | 3.2 | 0.00 | 0.10 | 0.00 | 98 | 1013.1 |
| 20260507015825 | 7 | 50 | 0.0 | 3.2 | 0.00 | 0.10 | 0.00 | 98 | 1013.1 |
| 20260507015703 | 8 | 48 | 0.0 | 3.2 | 0.00 | 0.10 | 0.00 | 98 | 1013.1 |
| 20260507015603 | 8 | 47 | 0.0 | 3.2 | 0.00 | 0.13 | 0.00 | 98 | 1013.1 |
| 20260507015504 | 8 | 47 | 0.0 | 3.2 | 0.00 | 0.13 | 0.00 | 98 | 1013.1 |
| 20260507015403 | 8 | 47 | 0.0 | 3.2 | 0.00 | 0.15 | 0.00 | 98 | 1013.2 |
| 20260507015324 | 8 | 47 | 1.6 | 3.2 | 0.00 | 0.15 | 0.00 | 98 | 1013.3 |
| 20260507015203 | 8 | 47 | 1.6 | 3.2 | 0.00 | 0.15 | 0.00 | 98 | 1013.3 |
| 20260507015103 | 8 | 47 | 1.6 | 3.2 | 0.00 | 0.15 | 0.00 | 98 | 1013.2 |
| 20260507015003 | 8 | 46 | 1.6 | 1.6 | 0.00 | 0.18 | 0.00 | 98 | 1013.3 |
| 20260507014903 | 8 | 45 | 0.0 | 1.6 | 0.00 | 0.18 | 0.00 | 98 | 1013.3 |
| 20260507014803 | 8 | 45 | 0.0 | 1.6 | 0.00 | 0.18 | 0.00 | 98 | 1013.2 |
| 20260507014703 | 8 | 46 | 0.0 | 1.6 | 0.00 | 0.18 | 0.00 | 98 | 1013.4 |
| 20260507014603 | 8 | 45 | 0.0 | 1.6 | 0.00 | 0.18 | 0.00 | 98 | 1013.2 |
| 20260507014503 | 8 | 46 | 0.0 | 1.6 | 0.00 | 0.18 | 0.00 | 98 | 1013.3 |
| 20260507014424 | 8 | 46 | 0.0 | 1.6 | 0.00 | 0.18 | 0.00 | 98 | 1013.3 |
| 20260507014324 | 8 | 45 | 0.0 | 1.6 | 0.00 | 0.18 | 0.00 | 98 | 1013.3 |
| 20260507014203 | 8 | 47 | 0.0 | 3.2 | 0.00 | 0.18 | 0.00 | 98 | 1013.1 |
| 20260507014103 | 8 | 47 | 1.6 | 3.2 | 0.00 | 0.18 | 0.00 | 98 | 1013.4 |
| 20260507014003 | 8 | 51 | 1.6 | 3.2 | 0.00 | 0.18 | 0.00 | 98 | 1013.5 |
| 20260507013903 | 8 | 52 | 1.6 | 3.2 | 0.00 | 0.18 | 0.00 | 98 | 1013.4 |
| 20260507013824 | 8 | 51 | 1.6 | 3.2 | 0.00 | 0.18 | 0.00 | 98 | 1013.4 |
| 20260507013703 | 8 | 51 | 1.6 | 3.2 | 0.00 | 0.18 | 0.00 | 98 | 1013.3 |
| 20260507013603 | 8 | 52 | 1.6 | 3.2 | 0.00 | 0.18 | 0.00 | 98 | 1013.3 |
| 20260507013503 | 8 | 52 | 1.6 | 3.2 | 0.00 | 0.18 | 0.00 | 98 | 1013.3 |
| 20260507013403 | 8 | 52 | 1.6 | 3.2 | 0.00 | 0.18 | 0.00 | 98 | 1013.2 |
| 20260507013303 | 8 | 52 | 1.6 | 3.2 | 0.00 | 0.18 | 0.00 | 98 | 1013.4 |
| 20260507013203 | 8 | 51 | 1.6 | 3.2 | 0.00 | 0.18 | 0.00 | 98 | 1013.3 |
| 20260507013124 | 8 | 51 | 1.6 | 3.2 | 0.00 | 0.18 | 0.00 | 98 | 1013.3 |
| 20260507013003 | 8 | 48 | 1.6 | 3.2 | 0.00 | 0.18 | 0.00 | 98 | 1013.5 |
| 20260507012903 | 8 | 49 | 1.6 | 3.2 | 0.00 | 0.18 | 0.00 | 98 | 1013.6 |
| 20260507012803 | 8 | 49 | 1.6 | 3.2 | 0.00 | 0.18 | 0.00 | 98 | 1013.5 |
| 20260507012703 | 8 | 48 | 1.6 | 3.2 | 0.00 | 0.18 | 0.00 | 98 | 1013.4 |
| 20260507012603 | 8 | 48 | 1.6 | 3.2 | 0.00 | 0.18 | 0.00 | 98 | 1013.4 |
| 20260507012503 | 8 | 48 | 1.6 | 3.2 | 0.00 | 0.18 | 0.00 | 98 | 1013.4 |
| 20260507012403 | 8 | 47 | 1.6 | 3.2 | 0.00 | 0.18 | 0.00 | 98 | 1013.4 |
| 20260507012306 | 8 | 47 | 1.6 | 3.2 | 0.00 | 0.18 | 0.00 | 98 | 1013.4 |
| 20260507012203 | 8 | 47 | 1.6 | 3.2 | 0.00 | 0.18 | 0.00 | 98 | 1013.4 |
| 20260507012103 | 8 | 48 | 1.6 | 3.2 | 0.00 | 0.18 | 0.00 | 98 | 1013.3 |
| 20260507012003 | 8 | 47 | 1.6 | 3.2 | 0.00 | 0.18 | 0.00 | 98 | 1013.5 |
| 20260507011903 | 8 | 46 | 1.6 | 3.2 | 0.00 | 0.18 | 0.00 | 98 | 1013.4 |
| 20260507011803 | 8 | 43 | 0.0 | 1.6 | 0.00 | 0.18 | 0.00 | 98 | 1013.4 |
| 20260507011724 | 8 | 43 | 0.0 | 1.6 | 0.00 | 0.18 | 0.00 | 98 | 1013.6 |
| 20260507011603 | 8 | 43 | 0.0 | 1.6 | 0.00 | 0.18 | 0.00 | 98 | 1013.4 |
| 20260507011503 | 8 | 43 | 0.0 | 1.6 | 0.00 | 0.18 | 0.00 | 98 | 1013.4 |
| 20260507011424 | 8 | 44 | 0.0 | 1.6 | 0.00 | 0.18 | 0.00 | 98 | 1013.5 |
| 20260507011303 | 8 | 43 | 1.6 | 1.6 | 0.00 | 0.18 | 0.00 | 98 | 1013.4 |
| 20260507011224 | 8 | 43 | 1.6 | 1.6 | 0.00 | 0.18 | 0.00 | 98 | 1013.6 |
| 20260507011124 | 8 | 43 | 1.6 | 1.6 | 0.00 | 0.18 | 0.00 | 98 | 1013.6 |
| 20260507011003 | 8 | 43 | 0.0 | 1.6 | 0.00 | 0.18 | 0.00 | 98 | 1013.6 |
| 20260507010904 | 8 | 42 | 0.0 | 1.6 | 0.00 | 0.18 | 0.00 | 98 | 1013.4 |
| 20260507010803 | 8 | 42 | 0.0 | 1.6 | 0.00 | 0.18 | 0.00 | 98 | 1013.4 |
| 20260507010724 | 8 | 42 | 0.0 | 1.6 | 0.00 | 0.18 | 0.00 | 98 | 1013.4 |
| 20260507010603 | 8 | 42 | 0.0 | 1.6 | 0.00 | 0.18 | 0.00 | 98 | 1013.4 |
| 20260507010503 | 8 | 42 | 0.0 | 1.6 | 0.00 | 0.18 | 0.00 | 98 | 1013.5 |
| 20260507010403 | 8 | 42 | 0.0 | 1.6 | 0.00 | 0.18 | 0.00 | 98 | 1013.4 |
| 20260507010303 | 8 | 40 | 0.0 | 1.6 | 0.00 | 0.18 | 0.00 | 98 | 1013.6 |
| 20260507010203 | 8 | 40 | 0.0 | 1.6 | 0.00 | 0.18 | 0.00 | 98 | 1013.4 |
| 20260507010024 | 8 | 0 | 0.0 | 0.0 | 0.00 | 0.18 | 0.00 | 98 | 1013.4 |
| 20260507005903 | 8 | 0 | 0.0 | 0.0 | 0.00 | 0.18 | 0.00 | 98 | 1013.2 |
| 20260507005803 | 8 | 0 | 0.0 | 0.0 | 0.00 | 0.18 | 0.00 | 98 | 1013.5 |
| 20260507005703 | 8 | 0 | 0.0 | 0.0 | 0.00 | 0.18 | 0.00 | 98 | 1013.4 |
| 20260507005603 | 8 | 0 | 0.0 | 0.0 | 0.00 | 0.18 | 0.00 | 98 | 1013.6 |
| 20260507005503 | 8 | 0 | 0.0 | 0.0 | 0.00 | 0.18 | 0.00 | 98 | 1013.6 |
| 20260507005403 | 8 | 0 | 0.0 | 0.0 | 0.00 | 0.18 | 0.00 | 98 | 1013.5 |
| 20260507005305 | 8 | 0 | 0.0 | 0.0 | 0.00 | 0.18 | 0.00 | 98 | 1013.6 |
| 20260507005203 | 8 | 0 | 0.0 | 0.0 | 0.00 | 0.18 | 0.00 | 98 | 1013.4 |
| 20260507005103 | 8 | 0 | 0.0 | 0.0 | 0.00 | 0.18 | 0.00 | 98 | 1013.4 |
| 20260507005003 | 8 | 0 | 0.0 | 0.0 | 0.00 | 0.18 | 0.00 | 98 | 1013.5 |
| 20260507004903 | 8 | 0 | 0.0 | 0.0 | 0.00 | 0.18 | 0.00 | 98 | 1013.8 |
| 20260507004803 | 8 | 0 | 0.0 | 0.0 | 0.00 | 0.18 | 0.00 | 98 | 1013.6 |
| 20260507004703 | 8 | 0 | 0.0 | 0.0 | 0.00 | 0.18 | 0.00 | 98 | 1013.5 |
| 20260507004603 | 8 | 0 | 0.0 | 0.0 | 0.00 | 0.18 | 0.00 | 98 | 1013.5 |
| 20260507004503 | 8 | 0 | 0.0 | 0.0 | 0.00 | 0.18 | 0.00 | 98 | 1013.7 |
| 20260507004403 | 8 | 0 | 0.0 | 0.0 | 0.00 | 0.18 | 0.00 | 98 | 1013.6 |
| 20260507004302 | 8 | 0 | 0.0 | 0.0 | 0.00 | 0.18 | 0.00 | 98 | 1013.6 |
| 20260507004202 | 8 | 0 | 0.0 | 0.0 | 0.00 | 0.18 | 0.00 | 98 | 1013.6 |
| 20260507004123 | 8 | 0 | 0.0 | 0.0 | 0.00 | 0.18 | 0.00 | 98 | 1013.6 |
| 20260507004003 | 8 | 0 | 0.0 | 0.0 | 0.00 | 0.18 | 0.00 | 98 | 1013.4 |
| 20260507003902 | 8 | 0 | 0.0 | 0.0 | 0.00 | 0.18 | 0.00 | 97 | 1013.6 |
| 20260507003803 | 8 | 0 | 0.0 | 0.0 | 0.00 | 0.18 | 0.00 | 97 | 1013.6 |
| 20260507003703 | 8 | 0 | 0.0 | 0.0 | 0.00 | 0.18 | 0.00 | 97 | 1013.6 |
| 20260507003603 | 8 | 0 | 0.0 | 0.0 | 0.00 | 0.18 | 0.00 | 97 | 1013.5 |
| 20260507003502 | 8 | 0 | 0.0 | 0.0 | 0.00 | 0.18 | 0.00 | 97 | 1013.7 |
| 20260507003402 | 8 | 0 | 0.0 | 0.0 | 0.00 | 0.18 | 0.00 | 97 | 1013.7 |
| 20260507003302 | 8 | 0 | 0.0 | 0.0 | 0.00 | 0.18 | 0.00 | 97 | 1013.6 |
| 20260507003203 | 8 | 0 | 0.0 | 0.0 | 0.00 | 0.18 | 0.00 | 97 | 1013.6 |
| 20260507003124 | 8 | 0 | 0.0 | 0.0 | 0.00 | 0.18 | 0.00 | 97 | 1013.5 |
| 20260507003003 | 8 | 0 | 0.0 | 0.0 | 0.00 | 0.18 | 0.00 | 97 | 1013.6 |
| 20260507002923 | 8 | 44 | 0.0 | 1.6 | 0.00 | 0.18 | 0.00 | 97 | 1013.7 |
| 20260507002803 | 8 | 44 | 0.0 | 1.6 | 0.00 | 0.18 | 0.00 | 97 | 1013.7 |
| 20260507002724 | 8 | 44 | 0.0 | 1.6 | 0.00 | 0.18 | 0.00 | 97 | 1013.5 |
| 20260507002602 | 8 | 44 | 0.0 | 1.6 | 0.00 | 0.18 | 0.00 | 97 | 1013.7 |
| 20260507002503 | 9 | 44 | 0.0 | 1.6 | 0.00 | 0.18 | 0.00 | 97 | 1013.6 |
| 20260507002402 | 9 | 45 | 0.0 | 1.6 | 0.00 | 0.18 | 0.00 | 97 | 1013.5 |
| 20260507002306 | 9 | 40 | 0.0 | 1.6 | 0.00 | 0.18 | 0.00 | 97 | 1013.8 |
| 20260507002223 | 9 | 40 | 0.0 | 1.6 | 0.00 | 0.18 | 0.00 | 97 | 1013.8 |
| 20260507002102 | 9 | 41 | 0.0 | 1.6 | 0.00 | 0.18 | 0.00 | 97 | 1013.6 |
| 20260507002002 | 9 | 51 | 1.6 | 3.2 | 0.00 | 0.18 | 0.00 | 97 | 1013.7 |
| 20260507001903 | 9 | 51 | 1.6 | 3.2 | 0.00 | 0.18 | 0.00 | 97 | 1013.7 |
| 20260507001803 | 9 | 51 | 1.6 | 3.2 | 0.00 | 0.18 | 0.00 | 97 | 1013.7 |
| 20260507001703 | 9 | 52 | 1.6 | 3.2 | 0.00 | 0.18 | 0.00 | 97 | 1013.8 |
| 20260507001602 | 9 | 51 | 1.6 | 3.2 | 0.00 | 0.18 | 0.00 | 97 | 1013.8 |
| 20260507001503 | 9 | 51 | 1.6 | 3.2 | 0.00 | 0.18 | 0.00 | 97 | 1013.8 |
| 20260507001403 | 9 | 50 | 1.6 | 3.2 | 0.00 | 0.18 | 0.00 | 97 | 1013.7 |
| 20260507001302 | 9 | 51 | 1.6 | 3.2 | 0.00 | 0.18 | 0.00 | 97 | 1013.8 |
| 20260507001203 | 9 | 51 | 1.6 | 3.2 | 0.00 | 0.18 | 0.00 | 97 | 1013.8 |
| 20260507001102 | 9 | 50 | 1.6 | 3.2 | 0.00 | 0.18 | 0.00 | 97 | 1013.8 |
| 20260507001024 | 9 | 50 | 1.6 | 3.2 | 0.00 | 0.18 | 0.00 | 97 | 1013.9 |
| 20260507000903 | 9 | 44 | 1.6 | 3.2 | 0.00 | 0.18 | 0.00 | 97 | 1013.9 |
| 20260507000802 | 9 | 43 | 1.6 | 3.2 | 0.00 | 0.18 | 0.00 | 97 | 1013.9 |
| 20260507000702 | 9 | 43 | 0.0 | 3.2 | 0.00 | 0.18 | 0.00 | 97 | 1013.9 |
| 20260507000603 | 9 | 41 | 0.0 | 3.2 | 0.00 | 0.18 | 0.00 | 97 | 1013.9 |
| 20260507000503 | 9 | 39 | 0.0 | 3.2 | 0.00 | 0.18 | 0.00 | 97 | 1013.9 |
| 20260507000423 | 9 | 39 | 0.0 | 3.2 | 0.00 | 0.18 | 0.00 | 97 | 1013.9 |
| 20260507000303 | 9 | 28 | 0.0 | 1.6 | 0.00 | 0.18 | 0.00 | 97 | 1013.9 |
| 20260507000204 | 9 | 28 | 0.0 | 1.6 | 0.00 | 0.18 | 0.00 | 97 | 1013.9 |
| 20260507000003 | 9 | 0 | 0.0 | 0.0 | 0.00 | 0.18 | 0.00 | 97 | 1013.9 |
| 20260506235902 | 9 | 0 | 0.0 | 0.0 | 0.00 | 0.18 | 0.00 | 97 | 1013.8 |
| 20260506235802 | 9 | 0 | 0.0 | 0.0 | 0.00 | 0.18 | 0.00 | 97 | 1013.9 |
| 20260506235724 | 9 | 0 | 0.0 | 0.0 | 0.00 | 0.18 | 0.00 | 97 | 1013.7 |
| 20260506235603 | 9 | 0 | 0.0 | 0.0 | 0.00 | 0.18 | 0.00 | 97 | 1013.7 |
| 20260506235503 | 9 | 0 | 0.0 | 0.0 | 0.00 | 0.18 | 0.00 | 97 | 1014.0 |
| 20260506235403 | 9 | 0 | 0.0 | 0.0 | 0.00 | 0.18 | 0.00 | 97 | 1013.8 |
| 20260506235306 | 9 | 0 | 0.0 | 0.0 | 0.00 | 0.18 | 0.00 | 97 | 1013.7 |
| 20260506235203 | 9 | 0 | 0.0 | 0.0 | 0.00 | 0.18 | 0.00 | 97 | 1013.8 |
| 20260506235124 | 9 | 22 | 0.0 | 1.6 | 0.00 | 0.18 | 0.00 | 97 | 1013.9 |
| 20260506235023 | 9 | 22 | 0.0 | 1.6 | 0.00 | 0.18 | 0.00 | 97 | 1013.9 |
| 20260506234903 | 9 | 20 | 0.0 | 1.6 | 0.00 | 0.18 | 0.00 | 96 | 1014.0 |
| 20260506234823 | 9 | 20 | 0.0 | 1.6 | 0.00 | 0.18 | 0.00 | 96 | 1014.0 |
| 20260506234724 | 9 | 20 | 0.0 | 1.6 | 0.00 | 0.18 | 0.00 | 96 | 1014.0 |
| 20260506234602 | 9 | 19 | 0.0 | 1.6 | 0.00 | 0.18 | 0.00 | 96 | 1014.0 |
| 20260506234523 | 9 | 19 | 0.0 | 1.6 | 0.00 | 0.18 | 0.00 | 96 | 1014.1 |
| 20260506234402 | 9 | 19 | 0.0 | 1.6 | 0.00 | 0.18 | 0.00 | 96 | 1014.1 |
| 20260506234303 | 9 | 19 | 0.0 | 1.6 | 0.00 | 0.18 | 0.00 | 96 | 1014.0 |
| 20260506234203 | 9 | 19 | 0.0 | 1.6 | 0.00 | 0.18 | 0.00 | 96 | 1013.9 |
| 20260506234103 | 10 | 19 | 0.0 | 1.6 | 0.00 | 0.18 | 0.00 | 96 | 1014.0 |
| 20260506234003 | 10 | 18 | 0.0 | 1.6 | 0.00 | 0.18 | 0.00 | 96 | 1014.1 |
| 20260506233902 | 10 | 18 | 0.0 | 1.6 | 0.00 | 0.18 | 0.00 | 96 | 1014.1 |
| 20260506233803 | 10 | 18 | 0.0 | 1.6 | 0.00 | 0.18 | 0.00 | 96 | 1014.0 |
| 20260506233724 | 10 | 18 | 0.0 | 1.6 | 0.00 | 0.18 | 0.00 | 96 | 1014.0 |
| 20260506233603 | 9 | 0 | 0.0 | 0.0 | 0.00 | 0.18 | 0.00 | 96 | 1014.1 |
| 20260506233503 | 9 | 0 | 0.0 | 0.0 | 0.00 | 0.18 | 0.00 | 96 | 1014.1 |
| 20260506233403 | 9 | 0 | 0.0 | 0.0 | 0.00 | 0.18 | 0.00 | 96 | 1014.0 |
| 20260506233303 | 9 | 0 | 0.0 | 0.0 | 0.00 | 0.18 | 0.00 | 96 | 1014.1 |
| 20260506233202 | 10 | 0 | 0.0 | 0.0 | 0.00 | 0.18 | 0.00 | 96 | 1014.2 |
| 20260506233124 | 10 | 0 | 0.0 | 0.0 | 0.00 | 0.18 | 0.00 | 96 | 1014.0 |
| 20260506233003 | 10 | 0 | 0.0 | 0.0 | 0.00 | 0.18 | 0.00 | 96 | 1014.0 |
| 20260506232903 | 10 | 0 | 0.0 | 0.0 | 0.00 | 0.18 | 0.00 | 96 | 1014.0 |
| 20260506232824 | 10 | 0 | 0.0 | 0.0 | 0.00 | 0.18 | 0.00 | 96 | 1014.0 |
| 20260506232703 | 10 | 0 | 0.0 | 0.0 | 0.00 | 0.18 | 0.00 | 96 | 1014.1 |
| 20260506232603 | 10 | 0 | 0.0 | 0.0 | 0.00 | 0.18 | 0.00 | 96 | 1014.1 |
| 20260506232502 | 10 | 0 | 0.0 | 0.0 | 0.00 | 0.18 | 0.00 | 96 | 1014.0 |
| 20260506232403 | 10 | 0 | 0.0 | 0.0 | 0.00 | 0.18 | 0.00 | 96 | 1014.1 |
| 20260506232306 | 10 | 0 | 0.0 | 0.0 | 0.00 | 0.18 | 0.00 | 96 | 1014.0 |
| 20260506232202 | 10 | 0 | 0.0 | 0.0 | 0.00 | 0.18 | 0.00 | 96 | 1014.1 |
| 20260506232124 | 10 | 0 | 0.0 | 0.0 | 0.00 | 0.18 | 0.00 | 96 | 1014.1 |
| 20260506232024 | 10 | 0 | 0.0 | 0.0 | 0.00 | 0.18 | 0.00 | 96 | 1014.0 |
| 20260506231903 | 10 | 0 | 0.0 | 0.0 | 0.00 | 0.18 | 0.00 | 96 | 1014.0 |
| 20260506231803 | 10 | 0 | 0.0 | 0.0 | 0.00 | 0.18 | 0.00 | 96 | 1014.0 |
| 20260506231703 | 10 | 0 | 0.0 | 0.0 | 0.00 | 0.18 | 0.00 | 96 | 1014.1 |
| 20260506231603 | 10 | 0 | 0.0 | 0.0 | 0.00 | 0.18 | 0.00 | 96 | 1013.9 |
| 20260506231503 | 10 | 0 | 0.0 | 0.0 | 0.00 | 0.18 | 0.00 | 96 | 1013.9 |
| 20260506231403 | 10 | 0 | 0.0 | 0.0 | 0.00 | 0.18 | 0.00 | 95 | 1014.0 |
| 20260506231323 | 10 | 0 | 0.0 | 0.0 | 0.00 | 0.18 | 0.00 | 95 | 1013.8 |
| 20260506231224 | 10 | 0 | 0.0 | 0.0 | 0.00 | 0.18 | 0.00 | 95 | 1013.9 |
| 20260506231103 | 10 | 0 | 0.0 | 0.0 | 0.00 | 0.18 | 0.00 | 95 | 1014.1 |
| 20260506231003 | 10 | 0 | 0.0 | 0.0 | 0.00 | 0.18 | 0.00 | 95 | 1014.2 |
| 20260506230903 | 10 | 0 | 0.0 | 0.0 | 0.00 | 0.18 | 0.00 | 95 | 1014.0 |
| 20260506230803 | 10 | 0 | 0.0 | 0.0 | 0.00 | 0.18 | 0.00 | 95 | 1014.0 |
| 20260506230703 | 10 | 0 | 0.0 | 0.0 | 0.00 | 0.18 | 0.00 | 95 | 1014.2 |
| 20260506230624 | 10 | 0 | 0.0 | 0.0 | 0.00 | 0.18 | 0.00 | 95 | 1014.2 |
| 20260506230502 | 10 | 0 | 0.0 | 0.0 | 0.00 | 0.18 | 0.00 | 95 | 1014.2 |
| 20260506230402 | 10 | 0 | 0.0 | 0.0 | 0.00 | 0.18 | 0.00 | 95 | 1014.2 |
| 20260506230302 | 10 | 0 | 0.0 | 0.0 | 0.00 | 0.18 | 0.00 | 95 | 1014.2 |
| 20260506230203 | 10 | 0 | 0.0 | 0.0 | 0.00 | 0.18 | 0.00 | 95 | 1014.2 |
| 20260506230103 | 10 | 0 | 0.0 | 0.0 | 0.00 | 0.18 | 0.00 | 95 | 1014.1 |
| 20260506230003 | 10 | 0 | 0.0 | 0.0 | 0.00 | 0.18 | 0.00 | 95 | 1014.1 |
| 20260506225903 | 10 | 0 | 0.0 | 0.0 | 0.00 | 0.18 | 0.00 | 95 | 1014.2 |
| 20260506225802 | 10 | 0 | 0.0 | 0.0 | 0.00 | 0.18 | 0.00 | 95 | 1014.2 |
| 20260506225703 | 10 | 0 | 0.0 | 0.0 | 0.00 | 0.18 | 0.00 | 95 | 1014.1 |
| 20260506225603 | 10 | 0 | 0.0 | 0.0 | 0.00 | 0.18 | 0.00 | 95 | 1014.3 |
| 20260506225503 | 10 | 0 | 0.0 | 0.0 | 0.00 | 0.18 | 0.00 | 95 | 1014.1 |
| 20260506225403 | 10 | 0 | 0.0 | 0.0 | 0.00 | 0.18 | 0.00 | 95 | 1014.3 |
| 20260506225305 | 10 | 0 | 0.0 | 0.0 | 0.00 | 0.18 | 0.00 | 95 | 1014.0 |
| 20260506225203 | 10 | 0 | 0.0 | 0.0 | 0.00 | 0.18 | 0.00 | 95 | 1014.0 |
| 20260506225124 | 10 | 0 | 0.0 | 0.0 | 0.00 | 0.18 | 0.00 | 95 | 1014.2 |
| 20260506225003 | 10 | 0 | 0.0 | 0.0 | 0.00 | 0.18 | 0.00 | 95 | 1014.2 |
| 20260506224903 | 10 | 0 | 0.0 | 0.0 | 0.00 | 0.18 | 0.00 | 95 | 1014.3 |
| 20260506224802 | 10 | 0 | 0.0 | 0.0 | 0.00 | 0.18 | 0.00 | 94 | 1014.3 |
| 20260506224724 | 10 | 0 | 0.0 | 0.0 | 0.00 | 0.18 | 0.00 | 94 | 1014.1 |
| 20260506224603 | 10 | 0 | 0.0 | 0.0 | 0.00 | 0.18 | 0.00 | 94 | 1014.3 |
| 20260506224503 | 10 | 0 | 0.0 | 0.0 | 0.00 | 0.18 | 0.00 | 94 | 1014.4 |
| 20260506224423 | 10 | 0 | 0.0 | 0.0 | 0.00 | 0.18 | 0.00 | 94 | 1014.3 |
| 20260506224303 | 10 | 0 | 0.0 | 0.0 | 0.00 | 0.18 | 0.00 | 94 | 1014.3 |
| 20260506224224 | 10 | 0 | 0.0 | 0.0 | 0.00 | 0.18 | 0.00 | 94 | 1014.3 |
| 20260506224103 | 10 | 0 | 0.0 | 0.0 | 0.00 | 0.18 | 0.00 | 94 | 1014.4 |
| 20260506224003 | 11 | 0 | 0.0 | 0.0 | 0.00 | 0.18 | 0.00 | 94 | 1014.3 |
| 20260506223903 | 11 | 0 | 0.0 | 0.0 | 0.00 | 0.18 | 0.00 | 94 | 1014.4 |
| 20260506223824 | 11 | 0 | 0.0 | 0.0 | 0.00 | 0.18 | 0.00 | 94 | 1014.4 |
| 20260506223723 | 11 | 0 | 0.0 | 0.0 | 0.00 | 0.18 | 0.00 | 94 | 1014.5 |
| 20260506223624 | 11 | 0 | 0.0 | 0.0 | 0.00 | 0.18 | 0.00 | 94 | 1014.2 |
| 20260506223503 | 11 | 0 | 0.0 | 0.0 | 0.00 | 0.18 | 0.00 | 94 | 1014.2 |
| 20260506223403 | 11 | 0 | 0.0 | 0.0 | 0.00 | 0.18 | 0.00 | 94 | 1014.4 |
| 20260506223303 | 11 | 0 | 0.0 | 0.0 | 0.00 | 0.18 | 0.00 | 94 | 1014.4 |
| 20260506223202 | 11 | 0 | 0.0 | 0.0 | 0.00 | 0.18 | 0.00 | 94 | 1014.5 |
| 20260506223103 | 11 | 0 | 0.0 | 0.0 | 0.00 | 0.18 | 0.00 | 94 | 1014.5 |
| 20260506223024 | 11 | 0 | 0.0 | 0.0 | 0.00 | 0.18 | 0.00 | 94 | 1014.4 |
| 20260506222903 | 11 | 0 | 0.0 | 0.0 | 0.00 | 0.18 | 0.00 | 94 | 1014.5 |
| 20260506222803 | 11 | 0 | 0.0 | 0.0 | 0.00 | 0.18 | 0.00 | 94 | 1014.4 |
| 20260506222703 | 11 | 0 | 0.0 | 0.0 | 0.00 | 0.18 | 0.00 | 94 | 1014.5 |
| 20260506222602 | 11 | 0 | 0.0 | 0.0 | 0.00 | 0.18 | 0.00 | 94 | 1014.4 |
| 20260506222503 | 11 | 0 | 0.0 | 0.0 | 0.00 | 0.18 | 0.00 | 94 | 1014.5 |
| 20260506222403 | 11 | 0 | 0.0 | 0.0 | 0.00 | 0.18 | 0.00 | 94 | 1014.4 |
| 20260506222305 | 11 | 0 | 0.0 | 0.0 | 0.00 | 0.18 | 0.00 | 94 | 1014.4 |
| 20260506222202 | 11 | 0 | 0.0 | 0.0 | 0.00 | 0.18 | 0.00 | 94 | 1014.4 |
| 20260506222103 | 11 | 0 | 0.0 | 0.0 | 0.00 | 0.18 | 0.00 | 94 | 1014.5 |
| 20260506222003 | 11 | 0 | 0.0 | 0.0 | 0.00 | 0.18 | 0.00 | 94 | 1014.5 |
| 20260506221924 | 11 | 0 | 0.0 | 0.0 | 0.00 | 0.18 | 0.00 | 94 | 1014.5 |
| 20260506221803 | 11 | 0 | 0.0 | 0.0 | 0.00 | 0.18 | 0.00 | 94 | 1014.5 |
| 20260506221703 | 11 | 0 | 0.0 | 0.0 | 0.00 | 0.18 | 0.00 | 94 | 1014.5 |
| 20260506221603 | 11 | 0 | 0.0 | 0.0 | 0.00 | 0.18 | 0.00 | 94 | 1014.6 |
| 20260506221524 | 11 | 0 | 0.0 | 0.0 | 0.00 | 0.18 | 0.00 | 94 | 1014.6 |
| 20260506221403 | 11 | 0 | 0.0 | 0.0 | 0.00 | 0.18 | 0.00 | 93 | 1014.6 |
| 20260506221303 | 11 | 0 | 0.0 | 0.0 | 0.00 | 0.18 | 0.00 | 93 | 1014.6 |
| 20260506221224 | 11 | 0 | 0.0 | 0.0 | 0.00 | 0.18 | 0.00 | 93 | 1014.6 |
| 20260506221103 | 11 | 0 | 0.0 | 0.0 | 0.00 | 0.18 | 0.00 | 93 | 1014.6 |
| 20260506221002 | 11 | 0 | 0.0 | 0.0 | 0.00 | 0.18 | 0.00 | 93 | 1014.6 |
| 20260506220903 | 11 | 0 | 0.0 | 0.0 | 0.00 | 0.18 | 0.00 | 93 | 1014.7 |
| 20260506220803 | 11 | 0 | 0.0 | 0.0 | 0.00 | 0.18 | 0.00 | 93 | 1014.8 |
| 20260506220724 | 11 | 0 | 0.0 | 0.0 | 0.00 | 0.18 | 0.00 | 93 | 1014.8 |
| 20260506220603 | 11 | 0 | 0.0 | 0.0 | 0.00 | 0.18 | 0.00 | 93 | 1014.7 |
| 20260506220503 | 11 | 0 | 0.0 | 0.0 | 0.00 | 0.18 | 0.00 | 93 | 1014.7 |
| 20260506220402 | 11 | 0 | 0.0 | 0.0 | 0.00 | 0.18 | 0.00 | 93 | 1014.9 |
| 20260506220324 | 11 | 0 | 0.0 | 0.0 | 0.00 | 0.18 | 0.00 | 93 | 1014.8 |
| 20260506220224 | 11 | 0 | 0.0 | 0.0 | 0.00 | 0.18 | 0.00 | 93 | 1014.7 |
| 20260506220025 | 11 | 0 | 0.0 | 0.0 | 0.00 | 0.18 | 0.00 | 93 | 1014.7 |
| 20260506215903 | 11 | 0 | 0.0 | 0.0 | 0.00 | 0.18 | 0.18 | 93 | 1014.8 |
| 20260506215803 | 11 | 0 | 0.0 | 0.0 | 0.00 | 0.18 | 0.18 | 93 | 1014.8 |
| 20260506215702 | 11 | 0 | 0.0 | 0.0 | 0.00 | 0.18 | 0.18 | 93 | 1014.7 |
| 20260506215602 | 11 | 0 | 0.0 | 0.0 | 0.00 | 0.18 | 0.18 | 93 | 1014.7 |
| 20260506215503 | 11 | 0 | 0.0 | 0.0 | 0.00 | 0.18 | 0.18 | 93 | 1014.7 |
| 20260506215403 | 11 | 0 | 0.0 | 0.0 | 0.00 | 0.18 | 0.18 | 92 | 1014.8 |
| 20260506215305 | 11 | 0 | 0.0 | 0.0 | 0.00 | 0.18 | 0.18 | 92 | 1014.8 |
| 20260506215224 | 11 | 0 | 0.0 | 0.0 | 0.00 | 0.18 | 0.18 | 92 | 1014.8 |
| 20260506215103 | 11 | 0 | 0.0 | 0.0 | 0.00 | 0.18 | 0.18 | 92 | 1014.8 |
| 20260506215003 | 11 | 0 | 0.0 | 0.0 | 0.00 | 0.18 | 0.18 | 92 | 1014.6 |
| 20260506214903 | 11 | 16 | 0.0 | 1.6 | 0.00 | 0.18 | 0.18 | 92 | 1014.6 |
| 20260506214803 | 11 | 16 | 0.0 | 1.6 | 0.00 | 0.18 | 0.18 | 92 | 1014.8 |
| 20260506214703 | 11 | 16 | 0.0 | 1.6 | 0.00 | 0.18 | 0.18 | 92 | 1014.7 |
| 20260506214603 | 11 | 16 | 0.0 | 1.6 | 0.00 | 0.18 | 0.18 | 92 | 1014.8 |
| 20260506214503 | 11 | 16 | 0.0 | 1.6 | 0.00 | 0.18 | 0.18 | 92 | 1014.8 |
| 20260506214403 | 11 | 16 | 0.0 | 1.6 | 0.00 | 0.18 | 0.18 | 92 | 1014.9 |
| 20260506214303 | 11 | 16 | 0.0 | 1.6 | 0.00 | 0.18 | 0.18 | 92 | 1014.6 |
| 20260506214203 | 11 | 16 | 0.0 | 1.6 | 0.00 | 0.18 | 0.18 | 92 | 1014.5 |
| 20260506214103 | 11 | 16 | 0.0 | 1.6 | 0.00 | 0.18 | 0.18 | 92 | 1014.8 |
| 20260506214003 | 11 | 16 | 0.0 | 1.6 | 0.00 | 0.18 | 0.18 | 92 | 1014.8 |
| 20260506213902 | 11 | 16 | 0.0 | 1.6 | 0.00 | 0.18 | 0.18 | 92 | 1014.8 |
| 20260506213803 | 11 | 0 | 0.0 | 0.0 | 0.00 | 0.18 | 0.18 | 92 | 1014.8 |
| 20260506213703 | 11 | 0 | 0.0 | 0.0 | 0.00 | 0.18 | 0.18 | 92 | 1014.7 |
| 20260506213603 | 11 | 17 | 0.0 | 1.6 | 0.00 | 0.18 | 0.18 | 92 | 1014.7 |
| 20260506213503 | 11 | 17 | 0.0 | 1.6 | 0.00 | 0.18 | 0.18 | 92 | 1014.7 |
| 20260506213403 | 11 | 17 | 0.0 | 1.6 | 0.00 | 0.18 | 0.18 | 92 | 1014.7 |
| 20260506213303 | 11 | 17 | 0.0 | 1.6 | 0.00 | 0.18 | 0.18 | 92 | 1014.8 |
| 20260506213224 | 11 | 17 | 0.0 | 1.6 | 0.00 | 0.18 | 0.18 | 92 | 1014.9 |
| 20260506213103 | 11 | 17 | 0.0 | 1.6 | 0.00 | 0.18 | 0.18 | 92 | 1014.8 |
| 20260506213003 | 11 | 17 | 0.0 | 1.6 | 0.00 | 0.18 | 0.18 | 91 | 1014.8 |
| 20260506212903 | 11 | 17 | 0.0 | 1.6 | 0.00 | 0.18 | 0.18 | 91 | 1014.7 |
| 20260506212803 | 11 | 17 | 0.0 | 1.6 | 0.00 | 0.18 | 0.18 | 91 | 1014.8 |
| 20260506212702 | 11 | 17 | 0.0 | 1.6 | 0.00 | 0.18 | 0.18 | 91 | 1014.7 |
| 20260506212624 | 11 | 17 | 0.0 | 1.6 | 0.00 | 0.18 | 0.18 | 91 | 1014.7 |
| 20260506212503 | 11 | 16 | 0.0 | 1.6 | 0.00 | 0.18 | 0.18 | 91 | 1014.8 |
| 20260506212402 | 11 | 16 | 0.0 | 1.6 | 0.00 | 0.18 | 0.18 | 91 | 1014.8 |
| 20260506212306 | 11 | 16 | 0.0 | 1.6 | 0.00 | 0.18 | 0.18 | 91 | 1014.9 |
| 20260506212224 | 11 | 16 | 0.0 | 1.6 | 0.00 | 0.18 | 0.18 | 91 | 1014.8 |
| 20260506212103 | 11 | 16 | 0.0 | 1.6 | 0.00 | 0.18 | 0.18 | 91 | 1014.8 |
| 20260506212003 | 11 | 16 | 0.0 | 3.2 | 0.00 | 0.18 | 0.18 | 91 | 1014.7 |
| 20260506211902 | 11 | 16 | 0.0 | 3.2 | 0.00 | 0.18 | 0.18 | 91 | 1014.9 |
| 20260506211803 | 11 | 16 | 0.0 | 3.2 | 0.00 | 0.18 | 0.18 | 91 | 1014.8 |
| 20260506211702 | 11 | 16 | 0.0 | 3.2 | 0.00 | 0.18 | 0.18 | 91 | 1014.9 |
| 20260506211624 | 11 | 16 | 0.0 | 3.2 | 0.00 | 0.18 | 0.18 | 91 | 1014.7 |
| 20260506211503 | 11 | 16 | 0.0 | 3.2 | 0.00 | 0.18 | 0.18 | 91 | 1014.8 |
| 20260506211403 | 11 | 16 | 0.0 | 3.2 | 0.00 | 0.18 | 0.18 | 91 | 1014.8 |
| 20260506211303 | 11 | 17 | 1.6 | 3.2 | 0.00 | 0.18 | 0.18 | 91 | 1014.7 |
| 20260506211203 | 11 | 17 | 0.0 | 3.2 | 0.00 | 0.18 | 0.18 | 91 | 1014.7 |
| 20260506211103 | 11 | 17 | 1.6 | 3.2 | 0.00 | 0.18 | 0.18 | 91 | 1014.9 |
| 20260506211003 | 11 | 17 | 0.0 | 1.6 | 0.00 | 0.18 | 0.18 | 91 | 1014.7 |
| 20260506210903 | 11 | 17 | 0.0 | 1.6 | 0.00 | 0.18 | 0.18 | 91 | 1014.8 |
| 20260506210803 | 11 | 17 | 0.0 | 1.6 | 0.00 | 0.18 | 0.18 | 91 | 1014.8 |
| 20260506210703 | 11 | 17 | 0.0 | 1.6 | 0.00 | 0.18 | 0.18 | 91 | 1014.8 |
| 20260506210624 | 11 | 17 | 0.0 | 1.6 | 0.00 | 0.18 | 0.18 | 91 | 1014.8 |
| 20260506210503 | 11 | 17 | 0.0 | 1.6 | 0.00 | 0.18 | 0.18 | 91 | 1014.8 |
| 20260506210403 | 11 | 17 | 0.0 | 1.6 | 0.00 | 0.18 | 0.18 | 90 | 1014.6 |
| 20260506210303 | 11 | 17 | 0.0 | 1.6 | 0.00 | 0.18 | 0.18 | 90 | 1014.8 |
| 20260506210203 | 11 | 17 | 0.0 | 1.6 | 0.00 | 0.18 | 0.18 | 90 | 1014.6 |
| 20260506210124 | 11 | 17 | 0.0 | 1.6 | 0.00 | 0.18 | 0.18 | 90 | 1014.7 |
| 20260506210003 | 11 | 17 | 0.0 | 1.6 | 0.00 | 0.18 | 0.18 | 90 | 1014.9 |
| 20260506205903 | 11 | 17 | 0.0 | 1.6 | 0.00 | 0.18 | 0.18 | 90 | 1014.6 |
| 20260506205803 | 11 | 17 | 0.0 | 1.6 | 0.00 | 0.18 | 0.18 | 90 | 1014.8 |
| 20260506205724 | 11 | 17 | 0.0 | 1.6 | 0.00 | 0.18 | 0.18 | 90 | 1014.8 |
| 20260506205603 | 11 | 17 | 0.0 | 1.6 | 0.00 | 0.18 | 0.18 | 90 | 1015.0 |
| 20260506205503 | 11 | 17 | 0.0 | 1.6 | 0.00 | 0.18 | 0.18 | 90 | 1014.7 |
| 20260506205403 | 11 | 17 | 0.0 | 1.6 | 0.00 | 0.18 | 0.18 | 90 | 1014.7 |
| 20260506205305 | 11 | 16 | 0.0 | 1.6 | 0.00 | 0.18 | 0.18 | 90 | 1014.9 |
| 20260506205224 | 11 | 16 | 0.0 | 1.6 | 0.00 | 0.18 | 0.18 | 90 | 1014.9 |
| 20260506205103 | 11 | 16 | 0.0 | 1.6 | 0.00 | 0.18 | 0.18 | 90 | 1014.9 |
| 20260506205003 | 11 | 16 | 0.0 | 1.6 | 0.00 | 0.18 | 0.18 | 90 | 1014.8 |
| 20260506204903 | 11 | 16 | 0.0 | 1.6 | 0.00 | 0.18 | 0.18 | 90 | 1014.9 |
| 20260506204803 | 11 | 16 | 0.0 | 1.6 | 0.00 | 0.18 | 0.18 | 89 | 1014.9 |
| 20260506204703 | 11 | 16 | 1.6 | 1.6 | 0.00 | 0.18 | 0.18 | 89 | 1014.7 |
| 20260506204624 | 11 | 16 | 1.6 | 1.6 | 0.00 | 0.18 | 0.18 | 89 | 1014.8 |
| 20260506204503 | 11 | 16 | 1.6 | 1.6 | 0.00 | 0.18 | 0.18 | 89 | 1014.8 |
| 20260506204424 | 11 | 16 | 1.6 | 1.6 | 0.00 | 0.18 | 0.18 | 89 | 1014.7 |
| 20260506204303 | 11 | 16 | 1.6 | 1.6 | 0.00 | 0.18 | 0.18 | 89 | 1014.7 |
| 20260506204203 | 11 | 16 | 1.6 | 1.6 | 0.00 | 0.18 | 0.18 | 89 | 1014.9 |
| 20260506204124 | 11 | 16 | 1.6 | 1.6 | 0.00 | 0.18 | 0.18 | 89 | 1014.8 |
| 20260506204003 | 11 | 16 | 1.6 | 1.6 | 0.00 | 0.18 | 0.18 | 89 | 1014.7 |
| 20260506203903 | 12 | 16 | 1.6 | 1.6 | 0.00 | 0.18 | 0.18 | 89 | 1014.9 |
| 20260506203803 | 12 | 16 | 1.6 | 1.6 | 0.00 | 0.18 | 0.18 | 89 | 1014.9 |
| 20260506203703 | 12 | 16 | 1.6 | 1.6 | 0.00 | 0.18 | 0.18 | 89 | 1014.7 |
| 20260506203603 | 12 | 13 | 1.6 | 3.2 | 0.00 | 0.18 | 0.18 | 89 | 1014.8 |
| 20260506203503 | 12 | 13 | 1.6 | 3.2 | 0.00 | 0.18 | 0.18 | 89 | 1014.8 |
| 20260506203403 | 12 | 14 | 1.6 | 3.2 | 0.00 | 0.18 | 0.18 | 89 | 1014.8 |
| 20260506203303 | 12 | 13 | 1.6 | 3.2 | 0.00 | 0.18 | 0.18 | 89 | 1014.8 |
| 20260506203203 | 12 | 10 | 1.6 | 4.8 | 0.00 | 0.18 | 0.18 | 88 | 1014.8 |
| 20260506203103 | 12 | 10 | 1.6 | 4.8 | 0.00 | 0.18 | 0.18 | 88 | 1014.7 |
| 20260506203003 | 12 | 11 | 3.2 | 4.8 | 0.00 | 0.18 | 0.18 | 88 | 1014.6 |
| 20260506202903 | 12 | 11 | 1.6 | 4.8 | 0.00 | 0.18 | 0.18 | 88 | 1014.7 |
| 20260506202803 | 12 | 10 | 3.2 | 4.8 | 0.00 | 0.18 | 0.18 | 88 | 1014.6 |
| 20260506202703 | 12 | 10 | 3.2 | 4.8 | 0.00 | 0.18 | 0.18 | 88 | 1014.5 |
| 20260506202603 | 12 | 10 | 3.2 | 4.8 | 0.00 | 0.18 | 0.18 | 88 | 1014.6 |
| 20260506202503 | 12 | 12 | 3.2 | 4.8 | 0.00 | 0.18 | 0.18 | 88 | 1014.6 |
| 20260506202404 | 12 | 12 | 3.2 | 4.8 | 0.00 | 0.18 | 0.18 | 88 | 1014.7 |
| 20260506202306 | 12 | 11 | 3.2 | 4.8 | 0.00 | 0.18 | 0.18 | 89 | 1014.7 |
| 20260506202203 | 12 | 12 | 3.2 | 4.8 | 0.00 | 0.18 | 0.18 | 89 | 1014.5 |
| 20260506202103 | 12 | 12 | 1.6 | 3.2 | 0.00 | 0.18 | 0.18 | 89 | 1014.5 |
| 20260506202024 | 12 | 12 | 1.6 | 3.2 | 0.00 | 0.18 | 0.18 | 89 | 1014.5 |
| 20260506201903 | 12 | 12 | 3.2 | 4.8 | 0.00 | 0.18 | 0.18 | 88 | 1014.6 |
| 20260506201803 | 12 | 13 | 3.2 | 4.8 | 0.00 | 0.18 | 0.18 | 88 | 1014.5 |
| 20260506201703 | 12 | 13 | 3.2 | 4.8 | 0.00 | 0.18 | 0.18 | 88 | 1014.6 |
| 20260506201603 | 12 | 13 | 3.2 | 4.8 | 0.00 | 0.18 | 0.18 | 88 | 1014.5 |
| 20260506201503 | 12 | 13 | 3.2 | 4.8 | 0.00 | 0.18 | 0.18 | 88 | 1014.5 |
| 20260506201403 | 12 | 13 | 3.2 | 4.8 | 0.00 | 0.18 | 0.18 | 88 | 1014.6 |
| 20260506201303 | 12 | 13 | 1.6 | 4.8 | 0.00 | 0.18 | 0.18 | 88 | 1014.5 |
| 20260506201203 | 12 | 15 | 1.6 | 4.8 | 0.00 | 0.18 | 0.18 | 88 | 1014.5 |
| 20260506201124 | 12 | 17 | 1.6 | 4.8 | 0.00 | 0.18 | 0.18 | 88 | 1014.4 |
| 20260506201003 | 12 | 16 | 1.6 | 4.8 | 0.00 | 0.18 | 0.18 | 88 | 1014.5 |
| 20260506200903 | 12 | 17 | 1.6 | 3.2 | 0.00 | 0.18 | 0.18 | 88 | 1014.5 |
| 20260506200803 | 12 | 17 | 1.6 | 3.2 | 0.00 | 0.18 | 0.18 | 88 | 1014.5 |
| 20260506200703 | 12 | 17 | 1.6 | 3.2 | 0.00 | 0.18 | 0.18 | 88 | 1014.5 |
| 20260506200603 | 12 | 17 | 1.6 | 3.2 | 0.00 | 0.18 | 0.18 | 88 | 1014.7 |
| 20260506200503 | 12 | 16 | 1.6 | 3.2 | 0.00 | 0.18 | 0.18 | 88 | 1014.6 |
| 20260506200403 | 12 | 16 | 1.6 | 3.2 | 0.00 | 0.18 | 0.18 | 88 | 1014.6 |
| 20260506200303 | 12 | 17 | 1.6 | 3.2 | 0.00 | 0.18 | 0.18 | 88 | 1014.5 |
| 20260506200203 | 12 | 16 | 1.6 | 3.2 | 0.00 | 0.18 | 0.18 | 88 | 1014.6 |
| 20260506200124 | 12 | 16 | 1.6 | 3.2 | 0.00 | 0.18 | 0.18 | 88 | 1014.6 |
| 20260506200024 | 12 | 16 | 1.6 | 3.2 | 0.00 | 0.18 | 0.18 | 88 | 1014.7 |
| 20260506195903 | 12 | 16 | 1.6 | 3.2 | 0.00 | 0.18 | 0.18 | 88 | 1014.6 |
| 20260506195803 | 12 | 16 | 1.6 | 3.2 | 0.00 | 0.18 | 0.18 | 88 | 1014.7 |
| 20260506195703 | 12 | 17 | 1.6 | 3.2 | 0.00 | 0.18 | 0.18 | 88 | 1014.5 |
| 20260506195603 | 12 | 17 | 1.6 | 3.2 | 0.00 | 0.18 | 0.18 | 88 | 1014.5 |
| 20260506195503 | 12 | 17 | 1.6 | 3.2 | 0.00 | 0.18 | 0.18 | 88 | 1014.5 |
| 20260506195403 | 12 | 19 | 1.6 | 3.2 | 0.00 | 0.18 | 0.18 | 88 | 1014.5 |
| 20260506195305 | 12 | 19 | 1.6 | 3.2 | 0.00 | 0.18 | 0.18 | 88 | 1014.6 |
| 20260506195203 | 12 | 19 | 1.6 | 3.2 | 0.00 | 0.18 | 0.18 | 88 | 1014.7 |
| 20260506195103 | 12 | 20 | 1.6 | 3.2 | 0.00 | 0.18 | 0.18 | 88 | 1014.6 |
| 20260506195003 | 12 | 20 | 1.6 | 3.2 | 0.00 | 0.18 | 0.18 | 88 | 1014.7 |
| 20260506194903 | 12 | 23 | 1.6 | 3.2 | 0.00 | 0.18 | 0.18 | 88 | 1014.6 |
| 20260506194803 | 12 | 23 | 1.6 | 3.2 | 0.00 | 0.18 | 0.18 | 88 | 1014.7 |
| 20260506194703 | 12 | 21 | 1.6 | 3.2 | 0.00 | 0.18 | 0.18 | 87 | 1014.6 |
| 20260506194603 | 12 | 20 | 1.6 | 3.2 | 0.00 | 0.18 | 0.18 | 87 | 1014.4 |
| 20260506194503 | 12 | 19 | 1.6 | 3.2 | 0.00 | 0.18 | 0.18 | 87 | 1014.6 |
| 20260506194403 | 12 | 19 | 1.6 | 3.2 | 0.00 | 0.18 | 0.18 | 87 | 1014.6 |
| 20260506194303 | 12 | 17 | 1.6 | 4.8 | 0.00 | 0.18 | 0.18 | 87 | 1014.5 |
| 20260506194203 | 12 | 14 | 1.6 | 4.8 | 0.00 | 0.18 | 0.18 | 87 | 1014.4 |
| 20260506194103 | 12 | 13 | 1.6 | 4.8 | 0.00 | 0.18 | 0.18 | 87 | 1014.5 |
| 20260506194003 | 12 | 12 | 3.2 | 4.8 | 0.00 | 0.18 | 0.18 | 87 | 1014.6 |
| 20260506193903 | 12 | 12 | 1.6 | 4.8 | 0.00 | 0.18 | 0.18 | 87 | 1014.5 |
| 20260506193803 | 13 | 11 | 1.6 | 4.8 | 0.00 | 0.18 | 0.18 | 87 | 1014.5 |
| 20260506193703 | 13 | 11 | 1.6 | 4.8 | 0.00 | 0.18 | 0.18 | 87 | 1014.6 |
| 20260506193603 | 13 | 10 | 1.6 | 4.8 | 0.00 | 0.18 | 0.18 | 87 | 1014.6 |
| 20260506193503 | 13 | 9 | 1.6 | 4.8 | 0.00 | 0.18 | 0.18 | 87 | 1014.4 |
| 20260506193424 | 13 | 10 | 3.2 | 4.8 | 0.00 | 0.18 | 0.18 | 87 | 1014.8 |
| 20260506193303 | 13 | 11 | 3.2 | 4.8 | 0.00 | 0.18 | 0.18 | 87 | 1014.7 |
| 20260506193203 | 13 | 13 | 1.6 | 4.8 | 0.00 | 0.18 | 0.18 | 87 | 1014.7 |
| 20260506193103 | 13 | 16 | 1.6 | 3.2 | 0.00 | 0.18 | 0.18 | 87 | 1014.6 |
| 20260506193003 | 13 | 17 | 1.6 | 3.2 | 0.00 | 0.18 | 0.18 | 87 | 1014.5 |
| 20260506192903 | 13 | 17 | 1.6 | 3.2 | 0.00 | 0.18 | 0.18 | 87 | 1014.5 |
| 20260506192803 | 13 | 17 | 1.6 | 3.2 | 0.00 | 0.18 | 0.18 | 86 | 1014.6 |
| 20260506192724 | 13 | 17 | 1.6 | 3.2 | 0.00 | 0.18 | 0.18 | 86 | 1014.8 |
| 20260506192603 | 13 | 17 | 1.6 | 3.2 | 0.00 | 0.18 | 0.18 | 86 | 1014.8 |
| 20260506192503 | 13 | 17 | 1.6 | 3.2 | 0.00 | 0.18 | 0.18 | 86 | 1014.8 |
| 20260506192424 | 13 | 17 | 1.6 | 3.2 | 0.00 | 0.18 | 0.18 | 86 | 1014.8 |
| 20260506192305 | 13 | 18 | 1.6 | 3.2 | 0.00 | 0.18 | 0.18 | 86 | 1014.6 |
| 20260506192203 | 13 | 13 | 1.6 | 4.8 | 0.00 | 0.18 | 0.18 | 86 | 1014.7 |
| 20260506192124 | 13 | 13 | 1.6 | 4.8 | 0.00 | 0.18 | 0.18 | 86 | 1014.7 |
| 20260506192003 | 13 | 12 | 1.6 | 4.8 | 0.00 | 0.18 | 0.18 | 86 | 1014.6 |
| 20260506191903 | 13 | 12 | 1.6 | 4.8 | 0.00 | 0.18 | 0.18 | 86 | 1014.6 |
| 20260506191803 | 13 | 11 | 1.6 | 4.8 | 0.00 | 0.18 | 0.18 | 86 | 1014.6 |
| 20260506191703 | 13 | 10 | 1.6 | 4.8 | 0.00 | 0.18 | 0.18 | 86 | 1014.5 |
| 20260506191603 | 13 | 9 | 1.6 | 4.8 | 0.00 | 0.18 | 0.18 | 85 | 1014.5 |
| 20260506191503 | 13 | 9 | 1.6 | 4.8 | 0.00 | 0.18 | 0.18 | 85 | 1014.6 |
| 20260506191403 | 13 | 7 | 1.6 | 6.4 | 0.00 | 0.18 | 0.18 | 85 | 1014.6 |
| 20260506191303 | 13 | 7 | 1.6 | 6.4 | 0.00 | 0.18 | 0.18 | 85 | 1014.5 |
| 20260506191203 | 13 | 6 | 1.6 | 6.4 | 0.00 | 0.18 | 0.18 | 85 | 1014.5 |
| 20260506191103 | 13 | 8 | 1.6 | 6.4 | 0.00 | 0.18 | 0.18 | 85 | 1014.5 |
| 20260506191003 | 13 | 8 | 1.6 | 6.4 | 0.00 | 0.18 | 0.18 | 85 | 1014.6 |
| 20260506190903 | 13 | 8 | 1.6 | 6.4 | 0.00 | 0.18 | 0.18 | 85 | 1014.6 |
| 20260506190803 | 13 | 8 | 1.6 | 6.4 | 0.00 | 0.18 | 0.18 | 84 | 1014.6 |
| 20260506190724 | 13 | 9 | 1.6 | 6.4 | 0.00 | 0.18 | 0.18 | 84 | 1014.5 |
| 20260506190624 | 13 | 9 | 1.6 | 6.4 | 0.00 | 0.18 | 0.18 | 84 | 1014.5 |
| 20260506190503 | 13 | 7 | 1.6 | 6.4 | 0.00 | 0.18 | 0.18 | 84 | 1014.4 |
| 20260506190403 | 13 | 7 | 1.6 | 4.8 | 0.00 | 0.18 | 0.18 | 84 | 1014.4 |
| 20260506190324 | 13 | 7 | 1.6 | 4.8 | 0.00 | 0.18 | 0.18 | 84 | 1014.4 |
| 20260506190203 | 13 | 9 | 3.2 | 4.8 | 0.00 | 0.18 | 0.18 | 84 | 1014.5 |
| 20260506190003 | 13 | 11 | 3.2 | 4.8 | 0.00 | 0.18 | 0.18 | 83 | 1014.3 |
| 20260506185903 | 13 | 10 | 3.2 | 9.7 | 0.00 | 0.18 | 0.18 | 83 | 1014.4 |
| 20260506185824 | 13 | 10 | 3.2 | 9.7 | 0.00 | 0.18 | 0.18 | 83 | 1014.4 |
| 20260506185703 | 13 | 10 | 3.2 | 9.7 | 0.00 | 0.18 | 0.18 | 83 | 1014.5 |
| 20260506185603 | 14 | 11 | 3.2 | 9.7 | 0.00 | 0.18 | 0.18 | 83 | 1014.6 |
| 20260506185503 | 14 | 11 | 4.8 | 9.7 | 0.00 | 0.18 | 0.18 | 83 | 1014.5 |
| 20260506185403 | 14 | 15 | 4.8 | 9.7 | 0.00 | 0.18 | 0.18 | 83 | 1014.5 |
| 20260506185324 | 14 | 15 | 4.8 | 9.7 | 0.00 | 0.18 | 0.18 | 83 | 1014.7 |
| 20260506185203 | 14 | 15 | 3.2 | 9.7 | 0.00 | 0.18 | 0.18 | 83 | 1014.5 |
| 20260506185103 | 14 | 14 | 3.2 | 9.7 | 0.00 | 0.18 | 0.18 | 82 | 1014.5 |
| 20260506185003 | 14 | 14 | 3.2 | 9.7 | 0.00 | 0.18 | 0.18 | 82 | 1014.5 |
| 20260506184903 | 14 | 14 | 3.2 | 9.7 | 0.00 | 0.18 | 0.18 | 82 | 1014.7 |
| 20260506184824 | 14 | 14 | 3.2 | 9.7 | 0.00 | 0.18 | 0.18 | 82 | 1014.7 |
| 20260506184703 | 14 | 14 | 3.2 | 9.7 | 0.00 | 0.18 | 0.18 | 82 | 1014.3 |
| 20260506184603 | 14 | 15 | 3.2 | 9.7 | 0.00 | 0.18 | 0.18 | 82 | 1014.7 |
| 20260506184503 | 14 | 14 | 3.2 | 9.7 | 0.00 | 0.18 | 0.18 | 82 | 1014.5 |
| 20260506184424 | 14 | 13 | 3.2 | 9.7 | 0.00 | 0.18 | 0.18 | 82 | 1014.5 |
| 20260506184324 | 14 | 11 | 3.2 | 4.8 | 0.00 | 0.18 | 0.18 | 82 | 1014.5 |
| 20260506184203 | 14 | 12 | 3.2 | 4.8 | 0.00 | 0.18 | 0.18 | 82 | 1014.6 |
| 20260506184103 | 14 | 12 | 3.2 | 4.8 | 0.00 | 0.18 | 0.18 | 82 | 1014.4 |
| 20260506184003 | 14 | 13 | 3.2 | 4.8 | 0.00 | 0.18 | 0.18 | 82 | 1014.5 |
| 20260506183903 | 14 | 13 | 3.2 | 4.8 | 0.00 | 0.18 | 0.18 | 82 | 1014.5 |
| 20260506183803 | 14 | 13 | 3.2 | 4.8 | 0.00 | 0.18 | 0.18 | 82 | 1014.5 |
| 20260506183703 | 14 | 12 | 3.2 | 9.7 | 0.00 | 0.18 | 0.18 | 82 | 1014.4 |
| 20260506183603 | 14 | 11 | 3.2 | 9.7 | 0.00 | 0.18 | 0.18 | 82 | 1014.6 |
| 20260506183503 | 14 | 16 | 3.2 | 9.7 | 0.00 | 0.18 | 0.18 | 82 | 1014.4 |
| 20260506183403 | 14 | 16 | 3.2 | 9.7 | 0.00 | 0.18 | 0.18 | 82 | 1014.6 |
| 20260506183303 | 14 | 16 | 3.2 | 9.7 | 0.00 | 0.18 | 0.18 | 81 | 1014.6 |
| 20260506183203 | 13 | 15 | 3.2 | 9.7 | 0.00 | 0.18 | 0.18 | 81 | 1014.4 |
| 20260506183103 | 13 | 16 | 3.2 | 9.7 | 0.00 | 0.18 | 0.18 | 81 | 1014.6 |
| 20260506183003 | 13 | 16 | 3.2 | 9.7 | 0.00 | 0.18 | 0.18 | 81 | 1014.4 |
| 20260506182903 | 13 | 16 | 3.2 | 9.7 | 0.00 | 0.18 | 0.18 | 81 | 1014.4 |
| 20260506182803 | 13 | 16 | 3.2 | 9.7 | 0.00 | 0.18 | 0.18 | 81 | 1014.7 |
| 20260506182703 | 13 | 16 | 3.2 | 9.7 | 0.00 | 0.18 | 0.18 | 81 | 1014.6 |
| 20260506182603 | 13 | 18 | 3.2 | 6.4 | 0.00 | 0.18 | 0.18 | 81 | 1014.4 |
| 20260506182503 | 13 | 17 | 3.2 | 6.4 | 0.00 | 0.18 | 0.18 | 81 | 1014.7 |
| 20260506182403 | 13 | 8 | 4.8 | 11.3 | 0.00 | 0.18 | 0.18 | 82 | 1014.4 |
| 20260506182306 | 13 | 10 | 4.8 | 11.3 | 0.00 | 0.18 | 0.18 | 82 | 1014.5 |
| 20260506182203 | 13 | 10 | 4.8 | 11.3 | 0.00 | 0.18 | 0.18 | 82 | 1014.6 |
| 20260506182103 | 13 | 8 | 4.8 | 12.9 | 0.00 | 0.18 | 0.18 | 83 | 1014.6 |
| 20260506182004 | 13 | 8 | 4.8 | 12.9 | 0.00 | 0.18 | 0.18 | 83 | 1014.6 |
| 20260506181903 | 13 | 9 | 4.8 | 12.9 | 0.00 | 0.18 | 0.18 | 82 | 1014.5 |
| 20260506181803 | 13 | 9 | 4.8 | 12.9 | 0.00 | 0.18 | 0.18 | 82 | 1014.4 |
| 20260506181703 | 13 | 8 | 6.4 | 12.9 | 0.00 | 0.18 | 0.18 | 82 | 1014.4 |
| 20260506181604 | 13 | 8 | 6.4 | 12.9 | 0.00 | 0.18 | 0.18 | 82 | 1014.6 |
| 20260506181503 | 13 | 9 | 6.4 | 12.9 | 0.00 | 0.18 | 0.18 | 82 | 1014.6 |
| 20260506181403 | 13 | 14 | 4.8 | 12.9 | 0.00 | 0.18 | 0.18 | 82 | 1014.6 |
| 20260506181303 | 13 | 13 | 4.8 | 12.9 | 0.00 | 0.18 | 0.18 | 82 | 1014.6 |
| 20260506181224 | 13 | 13 | 4.8 | 12.9 | 0.00 | 0.18 | 0.18 | 82 | 1014.6 |
| 20260506181124 | 13 | 15 | 4.8 | 12.9 | 0.00 | 0.18 | 0.18 | 82 | 1014.5 |
| 20260506181024 | 14 | 19 | 4.8 | 11.3 | 0.00 | 0.18 | 0.18 | 82 | 1014.6 |
| 20260506180903 | 14 | 20 | 3.2 | 11.3 | 0.00 | 0.18 | 0.18 | 82 | 1014.5 |
| 20260506180803 | 14 | 21 | 3.2 | 9.7 | 0.00 | 0.18 | 0.18 | 82 | 1014.5 |
| 20260506180724 | 14 | 18 | 4.8 | 9.7 | 0.00 | 0.18 | 0.18 | 82 | 1014.7 |
| 20260506180603 | 14 | 17 | 4.8 | 9.7 | 0.00 | 0.18 | 0.18 | 81 | 1014.6 |
| 20260506180503 | 14 | 19 | 4.8 | 9.7 | 0.00 | 0.18 | 0.18 | 81 | 1014.5 |
| 20260506180403 | 14 | 23 | 4.8 | 9.7 | 0.00 | 0.18 | 0.18 | 81 | 1014.7 |
| 20260506180303 | 15 | 21 | 4.8 | 9.7 | 0.00 | 0.18 | 0.18 | 81 | 1014.5 |
| 20260506180203 | 15 | 22 | 4.8 | 12.9 | 0.00 | 0.18 | 0.18 | 81 | 1014.5 |
| 20260506180124 | 15 | 23 | 4.8 | 12.9 | 0.00 | 0.18 | 0.18 | 81 | 1014.5 |
| 20260506180004 | 15 | 17 | 4.8 | 12.9 | 0.00 | 0.18 | 0.18 | 80 | 1014.5 |
| 20260506175903 | 15 | 17 | 6.4 | 12.9 | 0.00 | 0.18 | 0.18 | 80 | 1014.5 |
| 20260506175803 | 15 | 16 | 6.4 | 12.9 | 0.00 | 0.18 | 0.18 | 79 | 1014.5 |
| 20260506175703 | 15 | 18 | 6.4 | 12.9 | 0.00 | 0.18 | 0.18 | 80 | 1014.5 |
| 20260506175603 | 15 | 20 | 6.4 | 12.9 | 0.00 | 0.18 | 0.18 | 80 | 1014.6 |
| 20260506175503 | 15 | 20 | 6.4 | 12.9 | 0.00 | 0.18 | 0.18 | 80 | 1014.6 |
| 20260506175403 | 15 | 12 | 6.4 | 16.1 | 0.00 | 0.18 | 0.18 | 80 | 1014.7 |
| 20260506175306 | 15 | 8 | 6.4 | 16.1 | 0.00 | 0.18 | 0.18 | 80 | 1014.6 |
| 20260506175203 | 15 | 7 | 6.4 | 16.1 | 0.00 | 0.18 | 0.18 | 81 | 1014.6 |
| 20260506175103 | 15 | 3 | 6.4 | 16.1 | 0.00 | 0.18 | 0.18 | 81 | 1014.8 |
| 20260506175003 | 15 | 360 | 6.4 | 16.1 | 0.00 | 0.18 | 0.18 | 81 | 1014.6 |
| 20260506174903 | 15 | 360 | 6.4 | 16.1 | 0.00 | 0.18 | 0.18 | 81 | 1014.6 |
| 20260506174803 | 15 | 356 | 6.4 | 16.1 | 0.00 | 0.18 | 0.18 | 81 | 1014.7 |
| 20260506174724 | 15 | 357 | 6.4 | 16.1 | 0.00 | 0.18 | 0.18 | 81 | 1014.6 |
| 20260506174603 | 15 | 355 | 6.4 | 16.1 | 0.00 | 0.18 | 0.18 | 80 | 1014.6 |
| 20260506174503 | 15 | 355 | 6.4 | 16.1 | 0.00 | 0.18 | 0.18 | 79 | 1014.7 |
| 20260506174403 | 15 | 357 | 4.8 | 11.3 | 0.00 | 0.18 | 0.18 | 80 | 1014.7 |
| 20260506174303 | 15 | 358 | 6.4 | 12.9 | 0.00 | 0.18 | 0.18 | 80 | 1014.6 |
| 20260506174203 | 15 | 356 | 6.4 | 12.9 | 0.00 | 0.18 | 0.18 | 80 | 1014.7 |
| 20260506174103 | 15 | 359 | 8.0 | 12.9 | 0.00 | 0.18 | 0.18 | 79 | 1014.6 |
| 20260506174003 | 15 | 355 | 8.0 | 12.9 | 0.00 | 0.18 | 0.18 | 78 | 1014.7 |
| 20260506173903 | 15 | 356 | 8.0 | 12.9 | 0.00 | 0.18 | 0.18 | 78 | 1014.7 |
| 20260506173803 | 15 | 357 | 8.0 | 12.9 | 0.00 | 0.18 | 0.18 | 78 | 1014.6 |
| 20260506173703 | 15 | 353 | 8.0 | 12.9 | 0.00 | 0.18 | 0.18 | 79 | 1014.6 |
| 20260506173603 | 15 | 355 | 8.0 | 12.9 | 0.00 | 0.18 | 0.18 | 78 | 1014.6 |
| 20260506173503 | 15 | 355 | 8.0 | 12.9 | 0.00 | 0.18 | 0.18 | 78 | 1014.6 |
| 20260506173403 | 15 | 354 | 8.0 | 12.9 | 0.00 | 0.18 | 0.18 | 78 | 1014.8 |
| 20260506173303 | 15 | 355 | 6.4 | 12.9 | 0.00 | 0.18 | 0.18 | 77 | 1014.6 |
| 20260506173203 | 15 | 356 | 6.4 | 12.9 | 0.00 | 0.18 | 0.18 | 76 | 1014.8 |
| 20260506173103 | 15 | 357 | 6.4 | 12.9 | 0.00 | 0.18 | 0.18 | 76 | 1014.8 |
| 20260506173003 | 16 | 355 | 4.8 | 12.9 | 0.00 | 0.18 | 0.18 | 76 | 1014.8 |
| 20260506172903 | 16 | 356 | 4.8 | 12.9 | 0.00 | 0.18 | 0.18 | 75 | 1014.9 |
| 20260506172803 | 16 | 356 | 4.8 | 12.9 | 0.00 | 0.18 | 0.18 | 74 | 1014.8 |
| 20260506172703 | 16 | 359 | 4.8 | 9.7 | 0.00 | 0.18 | 0.18 | 75 | 1014.9 |
| 20260506172603 | 16 | 3 | 3.2 | 9.7 | 0.00 | 0.18 | 0.18 | 75 | 1014.9 |
| 20260506172503 | 16 | 2 | 3.2 | 9.7 | 0.00 | 0.18 | 0.18 | 76 | 1014.8 |
| 20260506172403 | 16 | 3 | 4.8 | 9.7 | 0.00 | 0.18 | 0.18 | 75 | 1014.9 |
| 20260506172306 | 16 | 3 | 4.8 | 9.7 | 0.00 | 0.18 | 0.18 | 75 | 1014.8 |
| 20260506172203 | 16 | 5 | 4.8 | 9.7 | 0.00 | 0.18 | 0.18 | 75 | 1014.9 |
| 20260506172124 | 16 | 5 | 4.8 | 9.7 | 0.00 | 0.18 | 0.18 | 75 | 1014.9 |
| 20260506172003 | 16 | 8 | 4.8 | 9.7 | 0.00 | 0.18 | 0.18 | 75 | 1014.8 |
| 20260506171903 | 16 | 13 | 4.8 | 9.7 | 0.00 | 0.18 | 0.18 | 76 | 1015.0 |
| 20260506171803 | 16 | 12 | 4.8 | 11.3 | 0.00 | 0.18 | 0.18 | 75 | 1014.9 |
| 20260506171703 | 16 | 12 | 4.8 | 11.3 | 0.00 | 0.18 | 0.18 | 75 | 1014.8 |
| 20260506171603 | 16 | 12 | 4.8 | 11.3 | 0.00 | 0.18 | 0.18 | 75 | 1014.8 |
| 20260506171503 | 16 | 13 | 4.8 | 11.3 | 0.00 | 0.18 | 0.18 | 75 | 1015.0 |
| 20260506171403 | 16 | 13 | 4.8 | 11.3 | 0.00 | 0.18 | 0.18 | 75 | 1014.8 |
| 20260506171324 | 16 | 10 | 4.8 | 11.3 | 0.00 | 0.18 | 0.18 | 75 | 1014.9 |
| 20260506171224 | 16 | 6 | 4.8 | 11.3 | 0.00 | 0.18 | 0.18 | 75 | 1014.8 |
| 20260506171124 | 16 | 359 | 4.8 | 11.3 | 0.00 | 0.18 | 0.18 | 75 | 1014.8 |
| 20260506171003 | 16 | 356 | 4.8 | 11.3 | 0.00 | 0.18 | 0.18 | 74 | 1014.9 |
| 20260506170903 | 16 | 352 | 4.8 | 11.3 | 0.00 | 0.18 | 0.18 | 73 | 1014.9 |
| 20260506170803 | 16 | 350 | 4.8 | 11.3 | 0.00 | 0.18 | 0.18 | 72 | 1015.0 |
| 20260506170725 | 16 | 347 | 4.8 | 11.3 | 0.00 | 0.18 | 0.18 | 72 | 1014.9 |
| 20260506170603 | 16 | 346 | 4.8 | 11.3 | 0.00 | 0.18 | 0.18 | 72 | 1014.7 |
| 20260506170503 | 16 | 347 | 4.8 | 11.3 | 0.00 | 0.18 | 0.18 | 72 | 1015.0 |
| 20260506170403 | 16 | 341 | 4.8 | 11.3 | 0.00 | 0.18 | 0.18 | 73 | 1014.7 |
| 20260506170303 | 16 | 344 | 4.8 | 11.3 | 0.00 | 0.18 | 0.18 | 71 | 1015.0 |
| 20260506170203 | 16 | 346 | 3.2 | 11.3 | 0.00 | 0.18 | 0.18 | 72 | 1014.8 |
| 20260506170124 | 16 | 346 | 3.2 | 11.3 | 0.00 | 0.18 | 0.18 | 72 | 1014.8 |
| 20260506170004 | 16 | 356 | 3.2 | 6.4 | 0.00 | 0.18 | 0.18 | 71 | 1014.9 |
| 20260506165903 | 16 | 356 | 3.2 | 6.4 | 0.00 | 0.18 | 0.18 | 71 | 1014.9 |
| 20260506165824 | 16 | 360 | 3.2 | 4.8 | 0.00 | 0.18 | 0.18 | 71 | 1014.7 |
| 20260506165703 | 16 | 355 | 3.2 | 6.4 | 0.00 | 0.18 | 0.18 | 70 | 1014.8 |
| 20260506165603 | 16 | 351 | 3.2 | 9.7 | 0.00 | 0.18 | 0.18 | 73 | 1014.9 |
| 20260506165503 | 16 | 355 | 3.2 | 11.3 | 0.00 | 0.18 | 0.18 | 73 | 1014.9 |
| 20260506165403 | 16 | 352 | 3.2 | 11.3 | 0.00 | 0.18 | 0.18 | 74 | 1015.0 |
| 20260506165324 | 16 | 356 | 4.8 | 11.3 | 0.00 | 0.18 | 0.18 | 73 | 1015.2 |
| 20260506165203 | 15 | 354 | 4.8 | 11.3 | 0.00 | 0.18 | 0.18 | 74 | 1014.8 |
| 20260506165103 | 15 | 352 | 6.4 | 11.3 | 0.00 | 0.18 | 0.18 | 74 | 1015.1 |
| 20260506165003 | 15 | 353 | 6.4 | 11.3 | 0.00 | 0.18 | 0.18 | 74 | 1015.1 |
| 20260506164903 | 15 | 353 | 6.4 | 11.3 | 0.00 | 0.18 | 0.18 | 74 | 1014.9 |
| 20260506164804 | 15 | 350 | 6.4 | 14.5 | 0.00 | 0.18 | 0.18 | 73 | 1015.0 |
| 20260506164724 | 15 | 350 | 6.4 | 14.5 | 0.00 | 0.18 | 0.18 | 73 | 1015.0 |
| 20260506164603 | 15 | 354 | 6.4 | 14.5 | 0.00 | 0.18 | 0.18 | 72 | 1014.9 |
| 20260506164503 | 15 | 351 | 6.4 | 14.5 | 0.00 | 0.18 | 0.18 | 73 | 1015.0 |
| 20260506164403 | 15 | 351 | 6.4 | 14.5 | 0.00 | 0.18 | 0.18 | 73 | 1015.0 |
| 20260506164303 | 15 | 352 | 8.0 | 14.5 | 0.00 | 0.18 | 0.18 | 72 | 1015.1 |
| 20260506164203 | 15 | 349 | 8.0 | 14.5 | 0.00 | 0.18 | 0.18 | 73 | 1015.0 |
| 20260506164103 | 15 | 353 | 8.0 | 14.5 | 0.00 | 0.18 | 0.18 | 74 | 1014.8 |
| 20260506164003 | 15 | 351 | 8.0 | 14.5 | 0.00 | 0.18 | 0.18 | 74 | 1015.2 |
| 20260506163903 | 15 | 352 | 8.0 | 14.5 | 0.00 | 0.18 | 0.18 | 74 | 1015.2 |
| 20260506163803 | 15 | 355 | 8.0 | 14.5 | 0.00 | 0.18 | 0.18 | 75 | 1015.0 |
| 20260506163703 | 15 | 358 | 8.0 | 14.5 | 0.00 | 0.18 | 0.18 | 76 | 1015.0 |
| 20260506163603 | 15 | 359 | 8.0 | 14.5 | 0.00 | 0.18 | 0.18 | 77 | 1014.9 |
| 20260506163503 | 15 | 356 | 8.0 | 14.5 | 0.00 | 0.18 | 0.18 | 77 | 1014.8 |
| 20260506163403 | 15 | 355 | 8.0 | 14.5 | 0.00 | 0.18 | 0.18 | 78 | 1014.9 |
| 20260506163303 | 15 | 356 | 8.0 | 14.5 | 0.00 | 0.18 | 0.18 | 78 | 1015.0 |
| 20260506163203 | 15 | 360 | 6.4 | 14.5 | 0.00 | 0.18 | 0.18 | 78 | 1015.0 |
| 20260506163103 | 15 | 359 | 6.4 | 14.5 | 0.00 | 0.18 | 0.18 | 79 | 1015.0 |
| 20260506163003 | 15 | 2 | 6.4 | 14.5 | 0.00 | 0.18 | 0.18 | 77 | 1015.0 |
| 20260506162903 | 15 | 357 | 6.4 | 14.5 | 0.00 | 0.18 | 0.18 | 76 | 1015.1 |
| 20260506162803 | 15 | 357 | 6.4 | 14.5 | 0.00 | 0.18 | 0.18 | 76 | 1015.1 |
| 20260506162703 | 15 | 353 | 6.4 | 14.5 | 0.00 | 0.18 | 0.18 | 77 | 1014.9 |
| 20260506162603 | 15 | 354 | 6.4 | 14.5 | 0.00 | 0.18 | 0.18 | 77 | 1015.0 |
| 20260506162503 | 15 | 348 | 6.4 | 14.5 | 0.00 | 0.18 | 0.18 | 76 | 1015.0 |
| 20260506162403 | 15 | 349 | 6.4 | 14.5 | 0.00 | 0.18 | 0.18 | 77 | 1014.9 |
| 20260506162306 | 15 | 353 | 4.8 | 12.9 | 0.00 | 0.18 | 0.18 | 78 | 1015.0 |
| 20260506162203 | 15 | 351 | 4.8 | 12.9 | 0.00 | 0.18 | 0.18 | 79 | 1015.0 |
| 20260506162103 | 15 | 352 | 4.8 | 12.9 | 0.00 | 0.18 | 0.18 | 78 | 1014.8 |
| 20260506162024 | 15 | 351 | 4.8 | 12.9 | 0.00 | 0.18 | 0.18 | 78 | 1015.0 |
| 20260506161903 | 15 | 348 | 6.4 | 14.5 | 0.00 | 0.18 | 0.18 | 77 | 1015.1 |
| 20260506161803 | 16 | 354 | 6.4 | 14.5 | 0.00 | 0.18 | 0.18 | 76 | 1015.0 |
| 20260506161703 | 16 | 348 | 6.4 | 14.5 | 0.00 | 0.18 | 0.18 | 76 | 1015.0 |
| 20260506161603 | 16 | 346 | 4.8 | 14.5 | 0.00 | 0.18 | 0.18 | 76 | 1015.0 |
| 20260506161503 | 16 | 352 | 4.8 | 14.5 | 0.00 | 0.18 | 0.18 | 77 | 1015.0 |
| 20260506161403 | 15 | 355 | 4.8 | 14.5 | 0.00 | 0.18 | 0.18 | 76 | 1014.8 |
| 20260506161303 | 15 | 355 | 4.8 | 14.5 | 0.00 | 0.18 | 0.18 | 76 | 1014.9 |
| 20260506161203 | 15 | 355 | 4.8 | 14.5 | 0.00 | 0.18 | 0.18 | 76 | 1014.9 |
| 20260506161103 | 15 | 353 | 4.8 | 14.5 | 0.00 | 0.18 | 0.18 | 77 | 1015.0 |
| 20260506161003 | 15 | 353 | 4.8 | 14.5 | 0.00 | 0.18 | 0.18 | 76 | 1015.0 |
| 20260506160903 | 15 | 354 | 4.8 | 14.5 | 0.00 | 0.18 | 0.18 | 76 | 1015.0 |
| 20260506160803 | 16 | 360 | 4.8 | 12.9 | 0.00 | 0.18 | 0.18 | 76 | 1015.1 |
| 20260506160703 | 16 | 357 | 4.8 | 12.9 | 0.00 | 0.18 | 0.18 | 76 | 1015.1 |
| 20260506160603 | 16 | 4 | 4.8 | 12.9 | 0.00 | 0.18 | 0.18 | 77 | 1015.1 |
| 20260506160503 | 16 | 3 | 4.8 | 12.9 | 0.00 | 0.18 | 0.18 | 78 | 1015.0 |
| 20260506160403 | 15 | 359 | 6.4 | 12.9 | 0.00 | 0.18 | 0.18 | 78 | 1015.0 |
| 20260506160303 | 15 | 359 | 6.4 | 12.9 | 0.00 | 0.18 | 0.18 | 78 | 1015.2 |
| 20260506160203 | 15 | 356 | 6.4 | 12.9 | 0.00 | 0.18 | 0.18 | 78 | 1015.2 |
| 20260506160124 | 15 | 359 | 6.4 | 12.9 | 0.00 | 0.18 | 0.18 | 79 | 1015.1 |
| 20260506160003 | 15 | 356 | 6.4 | 12.9 | 0.00 | 0.18 | 0.18 | 79 | 1015.2 |
| 20260506155903 | 15 | 357 | 8.0 | 16.1 | 0.00 | 0.18 | 0.18 | 79 | 1015.1 |
| 20260506155803 | 15 | 356 | 8.0 | 16.1 | 0.00 | 0.18 | 0.18 | 80 | 1015.1 |
| 20260506155703 | 15 | 353 | 8.0 | 16.1 | 0.00 | 0.18 | 0.18 | 80 | 1015.2 |
| 20260506155603 | 15 | 354 | 8.0 | 16.1 | 0.00 | 0.18 | 0.18 | 80 | 1015.2 |
| 20260506155524 | 15 | 354 | 8.0 | 16.1 | 0.00 | 0.18 | 0.18 | 80 | 1015.2 |
| 20260506155403 | 15 | 355 | 8.0 | 16.1 | 0.00 | 0.18 | 0.18 | 81 | 1015.1 |
| 20260506155305 | 14 | 356 | 8.0 | 16.1 | 0.00 | 0.18 | 0.18 | 81 | 1015.2 |
| 20260506155203 | 14 | 356 | 8.0 | 16.1 | 0.00 | 0.18 | 0.18 | 81 | 1015.1 |
| 20260506155103 | 14 | 358 | 8.0 | 16.1 | 0.00 | 0.18 | 0.18 | 81 | 1015.2 |
| 20260506155003 | 14 | 356 | 8.0 | 16.1 | 0.00 | 0.18 | 0.18 | 81 | 1015.2 |
| 20260506154903 | 14 | 359 | 6.4 | 16.1 | 0.00 | 0.18 | 0.18 | 81 | 1015.2 |
| 20260506154824 | 14 | 356 | 6.4 | 14.5 | 0.00 | 0.18 | 0.18 | 81 | 1015.2 |
| 20260506154724 | 14 | 357 | 6.4 | 14.5 | 0.00 | 0.18 | 0.18 | 80 | 1015.2 |
| 20260506154603 | 15 | 356 | 4.8 | 14.5 | 0.00 | 0.18 | 0.18 | 81 | 1015.2 |
| 20260506154503 | 15 | 348 | 4.8 | 11.3 | 0.00 | 0.18 | 0.18 | 80 | 1015.1 |
| 20260506154424 | 15 | 348 | 4.8 | 11.3 | 0.00 | 0.18 | 0.18 | 80 | 1015.1 |
| 20260506154303 | 15 | 327 | 3.2 | 9.7 | 0.00 | 0.18 | 0.18 | 82 | 1015.1 |
| 20260506154224 | 15 | 327 | 3.2 | 9.7 | 0.00 | 0.18 | 0.18 | 82 | 1015.1 |
| 20260506154103 | 15 | 326 | 4.8 | 9.7 | 0.00 | 0.18 | 0.18 | 81 | 1015.2 |
| 20260506154003 | 15 | 326 | 4.8 | 9.7 | 0.00 | 0.18 | 0.18 | 81 | 1015.2 |
| 20260506153903 | 15 | 329 | 4.8 | 9.7 | 0.00 | 0.18 | 0.18 | 81 | 1015.1 |
| 20260506153803 | 15 | 331 | 4.8 | 9.7 | 0.00 | 0.18 | 0.18 | 80 | 1015.3 |
| 20260506153703 | 15 | 331 | 4.8 | 9.7 | 0.00 | 0.18 | 0.18 | 80 | 1015.3 |
| 20260506153603 | 15 | 336 | 4.8 | 16.1 | 0.00 | 0.18 | 0.18 | 80 | 1015.2 |
| 20260506153524 | 15 | 342 | 4.8 | 16.1 | 0.00 | 0.18 | 0.18 | 80 | 1015.3 |
| 20260506153403 | 15 | 350 | 6.4 | 16.1 | 0.00 | 0.18 | 0.18 | 80 | 1015.3 |
| 20260506153303 | 15 | 355 | 6.4 | 16.1 | 0.00 | 0.18 | 0.18 | 79 | 1015.2 |
| 20260506153203 | 15 | 357 | 6.4 | 16.1 | 0.00 | 0.18 | 0.18 | 78 | 1015.2 |
| 20260506153124 | 15 | 358 | 6.4 | 16.1 | 0.00 | 0.18 | 0.18 | 79 | 1015.3 |
| 20260506153004 | 15 | 358 | 4.8 | 16.1 | 0.00 | 0.18 | 0.18 | 79 | 1015.1 |
| 20260506152903 | 15 | 356 | 4.8 | 16.1 | 0.00 | 0.18 | 0.18 | 78 | 1015.3 |
| 20260506152824 | 15 | 356 | 4.8 | 16.1 | 0.00 | 0.18 | 0.18 | 77 | 1015.2 |
| 20260506152703 | 15 | 352 | 4.8 | 16.1 | 0.00 | 0.18 | 0.18 | 76 | 1015.1 |
| 20260506152603 | 15 | 350 | 4.8 | 9.7 | 0.00 | 0.18 | 0.18 | 77 | 1015.3 |
| 20260506152503 | 15 | 349 | 4.8 | 9.7 | 0.00 | 0.18 | 0.18 | 75 | 1015.1 |
| 20260506152424 | 15 | 349 | 4.8 | 9.7 | 0.00 | 0.18 | 0.18 | 75 | 1015.1 |
| 20260506152305 | 16 | 349 | 4.8 | 9.7 | 0.00 | 0.18 | 0.18 | 77 | 1015.3 |
| 20260506152203 | 15 | 357 | 4.8 | 9.7 | 0.00 | 0.18 | 0.18 | 76 | 1015.2 |
| 20260506152103 | 15 | 358 | 4.8 | 9.7 | 0.00 | 0.18 | 0.18 | 76 | 1015.2 |
| 20260506152004 | 15 | 358 | 4.8 | 9.7 | 0.00 | 0.18 | 0.18 | 76 | 1015.2 |
| 20260506151903 | 15 | 357 | 4.8 | 9.7 | 0.00 | 0.18 | 0.18 | 75 | 1015.3 |
| 20260506151824 | 15 | 356 | 4.8 | 9.7 | 0.00 | 0.18 | 0.18 | 74 | 1015.3 |
| 20260506151703 | 15 | 356 | 4.8 | 9.7 | 0.00 | 0.18 | 0.18 | 73 | 1015.2 |
| 20260506151603 | 15 | 360 | 3.2 | 9.7 | 0.00 | 0.18 | 0.18 | 73 | 1015.2 |
| 20260506151524 | 15 | 1 | 3.2 | 9.7 | 0.00 | 0.18 | 0.18 | 74 | 1015.2 |
| 20260506151424 | 15 | 2 | 3.2 | 9.7 | 0.00 | 0.18 | 0.18 | 74 | 1015.3 |
| 20260506151303 | 15 | 2 | 3.2 | 9.7 | 0.00 | 0.18 | 0.18 | 74 | 1015.2 |
| 20260506151203 | 15 | 2 | 4.8 | 9.7 | 0.00 | 0.18 | 0.18 | 74 | 1015.4 |
| 20260506151124 | 15 | 1 | 3.2 | 9.7 | 0.00 | 0.18 | 0.18 | 74 | 1015.4 |
| 20260506151003 | 15 | 347 | 3.2 | 9.7 | 0.00 | 0.18 | 0.18 | 75 | 1015.2 |
| 20260506150903 | 15 | 337 | 4.8 | 9.7 | 0.00 | 0.18 | 0.18 | 75 | 1015.3 |
| 20260506150803 | 15 | 343 | 4.8 | 9.7 | 0.00 | 0.18 | 0.18 | 75 | 1015.4 |
| 20260506150703 | 15 | 345 | 4.8 | 14.5 | 0.00 | 0.18 | 0.18 | 75 | 1015.4 |
| 20260506150604 | 15 | 345 | 4.8 | 14.5 | 0.00 | 0.18 | 0.18 | 75 | 1015.4 |
| 20260506150503 | 15 | 344 | 4.8 | 14.5 | 0.00 | 0.18 | 0.18 | 74 | 1015.4 |
| 20260506150403 | 15 | 344 | 4.8 | 14.5 | 0.00 | 0.18 | 0.18 | 74 | 1015.4 |
| 20260506150324 | 15 | 344 | 4.8 | 14.5 | 0.00 | 0.18 | 0.18 | 74 | 1015.4 |
| 20260506150203 | 15 | 342 | 4.8 | 14.5 | 0.00 | 0.18 | 0.18 | 74 | 1015.6 |
| 20260506150003 | 15 | 337 | 4.8 | 14.5 | 0.00 | 0.18 | 0.18 | 74 | 1015.4 |
| 20260506145903 | 15 | 336 | 4.8 | 14.5 | 0.00 | 0.18 | 0.18 | 74 | 1015.5 |
| 20260506145824 | 15 | 339 | 4.8 | 14.5 | 0.00 | 0.18 | 0.18 | 74 | 1015.4 |
| 20260506145703 | 15 | 333 | 4.8 | 14.5 | 0.00 | 0.18 | 0.18 | 74 | 1015.6 |
| 20260506145603 | 15 | 319 | 3.2 | 9.7 | 0.00 | 0.18 | 0.18 | 74 | 1015.6 |
| 20260506145503 | 15 | 306 | 3.2 | 9.7 | 0.00 | 0.18 | 0.18 | 75 | 1015.4 |
| 20260506145424 | 15 | 302 | 4.8 | 9.7 | 0.00 | 0.18 | 0.18 | 74 | 1015.4 |
| 20260506145305 | 15 | 299 | 3.2 | 9.7 | 0.00 | 0.18 | 0.18 | 76 | 1015.5 |
| 20260506145224 | 15 | 294 | 4.8 | 9.7 | 0.00 | 0.18 | 0.18 | 76 | 1015.6 |
| 20260506145124 | 15 | 294 | 4.8 | 9.7 | 0.00 | 0.18 | 0.18 | 76 | 1015.6 |
| 20260506145003 | 16 | 293 | 3.2 | 9.7 | 0.00 | 0.18 | 0.18 | 76 | 1015.6 |
| 20260506144903 | 15 | 310 | 3.2 | 6.4 | 0.00 | 0.18 | 0.18 | 77 | 1015.6 |
| 20260506144803 | 15 | 310 | 3.2 | 6.4 | 0.00 | 0.18 | 0.18 | 77 | 1015.6 |
| 20260506144703 | 15 | 325 | 4.8 | 9.7 | 0.00 | 0.18 | 0.18 | 76 | 1015.7 |
| 20260506144624 | 15 | 333 | 4.8 | 9.7 | 0.00 | 0.18 | 0.18 | 76 | 1015.6 |
| 20260506144524 | 15 | 343 | 4.8 | 9.7 | 0.00 | 0.18 | 0.18 | 76 | 1015.6 |
| 20260506144403 | 15 | 355 | 4.8 | 9.7 | 0.00 | 0.18 | 0.18 | 76 | 1015.6 |
| 20260506144303 | 15 | 3 | 4.8 | 9.7 | 0.00 | 0.18 | 0.18 | 76 | 1015.5 |
| 20260506144203 | 15 | 5 | 4.8 | 9.7 | 0.00 | 0.18 | 0.18 | 77 | 1015.5 |
| 20260506144103 | 15 | 9 | 4.8 | 9.7 | 0.00 | 0.18 | 0.18 | 77 | 1015.7 |
| 20260506144003 | 15 | 9 | 4.8 | 9.7 | 0.00 | 0.18 | 0.18 | 78 | 1015.5 |
| 20260506143924 | 15 | 9 | 4.8 | 9.7 | 0.00 | 0.18 | 0.18 | 77 | 1015.6 |
| 20260506143803 | 15 | 10 | 4.8 | 9.7 | 0.00 | 0.18 | 0.18 | 77 | 1015.5 |
| 20260506143703 | 15 | 8 | 4.8 | 9.7 | 0.00 | 0.18 | 0.18 | 77 | 1015.6 |
| 20260506143603 | 15 | 7 | 4.8 | 9.7 | 0.00 | 0.18 | 0.18 | 78 | 1015.6 |
| 20260506143503 | 15 | 6 | 4.8 | 9.7 | 0.00 | 0.18 | 0.18 | 78 | 1015.5 |
| 20260506143403 | 15 | 4 | 4.8 | 9.7 | 0.00 | 0.18 | 0.18 | 78 | 1015.6 |
| 20260506143303 | 15 | 3 | 4.8 | 6.4 | 0.00 | 0.18 | 0.18 | 79 | 1015.7 |
| 20260506143224 | 15 | 3 | 4.8 | 6.4 | 0.00 | 0.18 | 0.18 | 79 | 1015.7 |
| 20260506143124 | 15 | 359 | 4.8 | 11.3 | 0.00 | 0.18 | 0.18 | 77 | 1015.8 |
| 20260506143003 | 16 | 359 | 4.8 | 11.3 | 0.00 | 0.18 | 0.18 | 78 | 1015.6 |
| 20260506142903 | 16 | 357 | 4.8 | 11.3 | 0.00 | 0.18 | 0.18 | 77 | 1015.7 |
| 20260506142803 | 16 | 356 | 6.4 | 11.3 | 0.00 | 0.18 | 0.18 | 78 | 1015.7 |
| 20260506142703 | 16 | 356 | 6.4 | 11.3 | 0.00 | 0.18 | 0.18 | 78 | 1015.7 |
| 20260506142603 | 15 | 359 | 6.4 | 11.3 | 0.00 | 0.18 | 0.18 | 78 | 1015.4 |
| 20260506142503 | 15 | 360 | 6.4 | 11.3 | 0.00 | 0.18 | 0.18 | 77 | 1015.5 |
| 20260506142403 | 15 | 360 | 6.4 | 11.3 | 0.00 | 0.18 | 0.18 | 77 | 1015.5 |
| 20260506142305 | 15 | 359 | 6.4 | 11.3 | 0.00 | 0.18 | 0.18 | 78 | 1015.7 |
| 20260506142204 | 15 | 359 | 6.4 | 11.3 | 0.00 | 0.18 | 0.18 | 77 | 1015.6 |
| 20260506142103 | 15 | 1 | 6.4 | 11.3 | 0.00 | 0.18 | 0.18 | 78 | 1015.7 |
| 20260506142024 | 15 | 1 | 6.4 | 11.3 | 0.00 | 0.18 | 0.18 | 78 | 1015.6 |
| 20260506141903 | 15 | 360 | 6.4 | 11.3 | 0.00 | 0.18 | 0.18 | 78 | 1015.6 |
| 20260506141803 | 15 | 1 | 6.4 | 11.3 | 0.00 | 0.18 | 0.18 | 78 | 1015.5 |
| 20260506141724 | 15 | 2 | 6.4 | 11.3 | 0.00 | 0.18 | 0.18 | 78 | 1015.5 |
| 20260506141603 | 15 | 360 | 6.4 | 11.3 | 0.00 | 0.18 | 0.18 | 77 | 1015.8 |
| 20260506141503 | 15 | 359 | 4.8 | 11.3 | 0.00 | 0.18 | 0.18 | 77 | 1015.6 |
| 20260506141403 | 15 | 2 | 6.4 | 14.5 | 0.00 | 0.18 | 0.18 | 77 | 1015.7 |
| 20260506141303 | 15 | 2 | 6.4 | 14.5 | 0.00 | 0.18 | 0.18 | 77 | 1015.7 |
| 20260506141203 | 15 | 2 | 6.4 | 14.5 | 0.00 | 0.18 | 0.18 | 77 | 1015.7 |
| 20260506141103 | 15 | 2 | 6.4 | 14.5 | 0.00 | 0.18 | 0.18 | 77 | 1015.7 |
| 20260506141024 | 15 | 357 | 6.4 | 17.7 | 0.00 | 0.18 | 0.18 | 77 | 1015.6 |
| 20260506140903 | 15 | 353 | 6.4 | 17.7 | 0.00 | 0.18 | 0.18 | 77 | 1015.6 |
| 20260506140803 | 15 | 353 | 6.4 | 17.7 | 0.00 | 0.18 | 0.18 | 76 | 1015.9 |
| 20260506140703 | 15 | 350 | 6.4 | 17.7 | 0.00 | 0.18 | 0.18 | 77 | 1015.7 |
| 20260506140603 | 15 | 350 | 6.4 | 17.7 | 0.00 | 0.18 | 0.18 | 77 | 1015.7 |
| 20260506140503 | 15 | 345 | 6.4 | 17.7 | 0.00 | 0.18 | 0.18 | 77 | 1015.8 |
| 20260506140403 | 15 | 338 | 6.4 | 17.7 | 0.00 | 0.18 | 0.18 | 77 | 1015.7 |
| 20260506140303 | 15 | 328 | 4.8 | 17.7 | 0.00 | 0.18 | 0.18 | 77 | 1015.6 |
| 20260506140203 | 15 | 330 | 6.4 | 17.7 | 0.00 | 0.18 | 0.18 | 77 | 1015.7 |
| 20260506140024 | 15 | 330 | 6.4 | 17.7 | 0.00 | 0.18 | 0.18 | 76 | 1015.7 |
| 20260506135903 | 16 | 332 | 4.8 | 9.7 | 0.00 | 0.18 | 0.18 | 76 | 1015.8 |
| 20260506135803 | 16 | 332 | 4.8 | 9.7 | 0.00 | 0.18 | 0.18 | 77 | 1015.8 |
| 20260506135703 | 16 | 331 | 4.8 | 9.7 | 0.00 | 0.18 | 0.18 | 76 | 1015.7 |
| 20260506135603 | 16 | 328 | 4.8 | 9.7 | 0.00 | 0.18 | 0.18 | 76 | 1015.6 |
| 20260506135503 | 16 | 328 | 4.8 | 9.7 | 0.00 | 0.18 | 0.18 | 76 | 1015.6 |
| 20260506135403 | 16 | 339 | 4.8 | 9.7 | 0.00 | 0.18 | 0.18 | 75 | 1015.8 |
| 20260506135306 | 16 | 350 | 4.8 | 9.7 | 0.00 | 0.18 | 0.18 | 77 | 1015.9 |
| 20260506135203 | 16 | 349 | 4.8 | 11.3 | 0.00 | 0.18 | 0.18 | 77 | 1015.8 |
| 20260506135103 | 16 | 348 | 4.8 | 11.3 | 0.00 | 0.18 | 0.18 | 78 | 1015.9 |
| 20260506135003 | 15 | 347 | 4.8 | 11.3 | 0.00 | 0.18 | 0.18 | 79 | 1015.9 |
| 20260506134903 | 15 | 348 | 4.8 | 11.3 | 0.00 | 0.18 | 0.18 | 79 | 1015.8 |
| 20260506134803 | 15 | 343 | 4.8 | 11.3 | 0.00 | 0.18 | 0.18 | 79 | 1016.0 |
| 20260506134703 | 15 | 337 | 4.8 | 11.3 | 0.00 | 0.18 | 0.18 | 79 | 1015.8 |
| 20260506134624 | 15 | 336 | 4.8 | 11.3 | 0.00 | 0.18 | 0.18 | 78 | 1015.8 |
| 20260506134503 | 15 | 336 | 3.2 | 11.3 | 0.00 | 0.18 | 0.18 | 78 | 1015.9 |
| 20260506134403 | 15 | 333 | 3.2 | 11.3 | 0.00 | 0.18 | 0.18 | 78 | 1015.8 |
| 20260506134303 | 15 | 334 | 3.2 | 11.3 | 0.00 | 0.18 | 0.18 | 78 | 1015.8 |
| 20260506134204 | 15 | 339 | 3.2 | 6.4 | 0.00 | 0.18 | 0.18 | 78 | 1015.8 |
| 20260506134103 | 15 | 341 | 3.2 | 6.4 | 0.00 | 0.18 | 0.18 | 78 | 1015.8 |
| 20260506134025 | 15 | 341 | 3.2 | 6.4 | 0.00 | 0.18 | 0.18 | 78 | 1015.8 |
| 20260506133903 | 15 | 347 | 3.2 | 6.4 | 0.00 | 0.18 | 0.18 | 78 | 1015.8 |
| 20260506133803 | 15 | 351 | 3.2 | 6.4 | 0.00 | 0.18 | 0.18 | 78 | 1016.0 |
| 20260506133724 | 15 | 351 | 3.2 | 6.4 | 0.00 | 0.18 | 0.18 | 78 | 1016.0 |
| 20260506133603 | 15 | 355 | 3.2 | 6.4 | 0.00 | 0.18 | 0.18 | 78 | 1016.0 |
| 20260506133503 | 15 | 359 | 3.2 | 6.4 | 0.00 | 0.18 | 0.18 | 78 | 1015.9 |
| 20260506133403 | 15 | 1 | 3.2 | 6.4 | 0.00 | 0.18 | 0.18 | 77 | 1015.8 |
| 20260506133303 | 15 | 1 | 3.2 | 6.4 | 0.00 | 0.18 | 0.18 | 77 | 1015.9 |
| 20260506133203 | 15 | 360 | 3.2 | 6.4 | 0.00 | 0.18 | 0.18 | 77 | 1015.8 |
| 20260506133103 | 15 | 1 | 3.2 | 9.7 | 0.00 | 0.18 | 0.18 | 77 | 1015.8 |
| 20260506133003 | 15 | 360 | 3.2 | 9.7 | 0.00 | 0.18 | 0.18 | 77 | 1015.8 |
| 20260506132903 | 15 | 2 | 3.2 | 9.7 | 0.00 | 0.18 | 0.18 | 76 | 1015.9 |
| 20260506132803 | 15 | 2 | 3.2 | 9.7 | 0.00 | 0.18 | 0.18 | 76 | 1015.9 |
| 20260506132703 | 15 | 5 | 3.2 | 9.7 | 0.00 | 0.18 | 0.18 | 76 | 1015.8 |
| 20260506132624 | 15 | 5 | 3.2 | 9.7 | 0.00 | 0.18 | 0.18 | 76 | 1015.9 |
| 20260506132503 | 15 | 6 | 3.2 | 9.7 | 0.00 | 0.18 | 0.18 | 76 | 1015.9 |
| 20260506132403 | 15 | 359 | 3.2 | 9.7 | 0.00 | 0.18 | 0.18 | 76 | 1015.9 |
| 20260506132306 | 15 | 347 | 3.2 | 9.7 | 0.00 | 0.18 | 0.18 | 76 | 1015.8 |
| 20260506132203 | 15 | 348 | 3.2 | 9.7 | 0.00 | 0.18 | 0.18 | 76 | 1016.0 |
| 20260506132103 | 15 | 345 | 3.2 | 9.7 | 0.00 | 0.18 | 0.18 | 78 | 1015.9 |
| 20260506132003 | 15 | 345 | 3.2 | 9.7 | 0.00 | 0.18 | 0.18 | 79 | 1015.9 |
| 20260506131903 | 15 | 343 | 3.2 | 9.7 | 0.00 | 0.18 | 0.18 | 79 | 1015.9 |
| 20260506131803 | 15 | 345 | 4.8 | 9.7 | 0.00 | 0.18 | 0.18 | 78 | 1015.8 |
| 20260506131724 | 15 | 345 | 4.8 | 9.7 | 0.00 | 0.18 | 0.18 | 78 | 1015.8 |
| 20260506131603 | 15 | 343 | 4.8 | 11.3 | 0.00 | 0.18 | 0.18 | 79 | 1015.8 |
| 20260506131503 | 15 | 343 | 4.8 | 11.3 | 0.00 | 0.18 | 0.18 | 79 | 1015.8 |
| 20260506131403 | 15 | 342 | 4.8 | 11.3 | 0.00 | 0.18 | 0.18 | 79 | 1015.9 |
| 20260506131303 | 15 | 349 | 4.8 | 11.3 | 0.00 | 0.18 | 0.18 | 79 | 1016.0 |
| 20260506131203 | 15 | 354 | 4.8 | 11.3 | 0.00 | 0.18 | 0.18 | 79 | 1015.8 |
| 20260506131103 | 15 | 355 | 4.8 | 11.3 | 0.00 | 0.18 | 0.18 | 79 | 1015.9 |
| 20260506131003 | 15 | 358 | 6.4 | 11.3 | 0.00 | 0.18 | 0.18 | 78 | 1016.0 |
| 20260506130903 | 15 | 358 | 6.4 | 11.3 | 0.00 | 0.18 | 0.18 | 78 | 1015.9 |
| 20260506130824 | 15 | 360 | 6.4 | 11.3 | 0.00 | 0.18 | 0.18 | 78 | 1015.9 |
| 20260506130703 | 15 | 359 | 4.8 | 11.3 | 0.00 | 0.18 | 0.18 | 79 | 1015.9 |
| 20260506130603 | 15 | 360 | 4.8 | 11.3 | 0.00 | 0.18 | 0.18 | 78 | 1015.9 |
| 20260506130503 | 15 | 3 | 4.8 | 11.3 | 0.00 | 0.18 | 0.18 | 78 | 1016.0 |
| 20260506130403 | 15 | 3 | 4.8 | 11.3 | 0.00 | 0.18 | 0.18 | 78 | 1015.8 |
| 20260506130303 | 15 | 360 | 4.8 | 11.3 | 0.00 | 0.18 | 0.18 | 78 | 1015.9 |
| 20260506130204 | 15 | 5 | 4.8 | 11.3 | 0.00 | 0.18 | 0.18 | 78 | 1015.9 |
| 20260506130103 | 15 | 3 | 3.2 | 11.3 | 0.00 | 0.18 | 0.18 | 77 | 1015.9 |
| 20260506130003 | 15 | 2 | 3.2 | 6.4 | 0.00 | 0.18 | 0.18 | 77 | 1015.9 |
| 20260506125903 | 15 | 2 | 3.2 | 6.4 | 0.00 | 0.18 | 0.18 | 77 | 1015.9 |
| 20260506125824 | 15 | 2 | 3.2 | 6.4 | 0.00 | 0.18 | 0.18 | 77 | 1015.9 |
| 20260506125703 | 15 | 3 | 3.2 | 6.4 | 0.00 | 0.18 | 0.18 | 77 | 1016.0 |
| 20260506125603 | 15 | 2 | 3.2 | 6.4 | 0.00 | 0.18 | 0.18 | 76 | 1015.8 |
| 20260506125524 | 15 | 2 | 3.2 | 6.4 | 0.00 | 0.18 | 0.18 | 76 | 1015.8 |
| 20260506125403 | 15 | 3 | 3.2 | 6.4 | 0.00 | 0.18 | 0.18 | 76 | 1016.0 |
| 20260506125305 | 15 | 2 | 3.2 | 6.4 | 0.00 | 0.18 | 0.18 | 76 | 1016.1 |
| 20260506125203 | 15 | 6 | 3.2 | 11.3 | 0.00 | 0.18 | 0.18 | 76 | 1016.0 |
| 20260506125103 | 15 | 4 | 3.2 | 11.3 | 0.00 | 0.18 | 0.18 | 75 | 1016.0 |
| 20260506125003 | 15 | 4 | 3.2 | 11.3 | 0.00 | 0.18 | 0.18 | 75 | 1016.0 |
| 20260506124903 | 15 | 5 | 4.8 | 11.3 | 0.00 | 0.18 | 0.18 | 76 | 1015.9 |
| 20260506124803 | 15 | 3 | 4.8 | 11.3 | 0.00 | 0.18 | 0.18 | 76 | 1016.1 |
| 20260506124703 | 15 | 358 | 3.2 | 11.3 | 0.00 | 0.18 | 0.18 | 78 | 1016.0 |
| 20260506124603 | 15 | 358 | 4.8 | 11.3 | 0.00 | 0.18 | 0.18 | 77 | 1016.1 |
| 20260506124503 | 15 | 358 | 4.8 | 11.3 | 0.00 | 0.18 | 0.18 | 76 | 1016.1 |
| 20260506124403 | 15 | 357 | 3.2 | 11.3 | 0.00 | 0.18 | 0.18 | 77 | 1015.9 |
| 20260506124303 | 15 | 357 | 3.2 | 11.3 | 0.00 | 0.18 | 0.18 | 77 | 1015.9 |
| 20260506124203 | 15 | 353 | 3.2 | 11.3 | 0.00 | 0.18 | 0.18 | 75 | 1016.1 |
| 20260506124103 | 15 | 348 | 3.2 | 11.3 | 0.00 | 0.18 | 0.18 | 75 | 1016.0 |
| 20260506124002 | 15 | 348 | 3.2 | 9.7 | 0.00 | 0.18 | 0.18 | 75 | 1016.1 |
| 20260506123902 | 15 | 347 | 3.2 | 9.7 | 0.00 | 0.18 | 0.18 | 75 | 1016.1 |
| 20260506123802 | 16 | 338 | 3.2 | 4.8 | 0.00 | 0.18 | 0.18 | 75 | 1015.9 |
| 20260506123702 | 16 | 344 | 3.2 | 6.4 | 0.00 | 0.18 | 0.18 | 75 | 1016.2 |
| 20260506123603 | 16 | 354 | 3.2 | 11.3 | 0.00 | 0.18 | 0.18 | 75 | 1016.1 |
| 20260506123502 | 16 | 355 | 3.2 | 11.3 | 0.00 | 0.18 | 0.18 | 75 | 1016.0 |
| 20260506123424 | 15 | 355 | 3.2 | 11.3 | 0.00 | 0.18 | 0.18 | 74 | 1016.2 |
| 20260506123302 | 16 | 355 | 4.8 | 11.3 | 0.00 | 0.18 | 0.18 | 74 | 1016.2 |
| 20260506123224 | 16 | 355 | 4.8 | 11.3 | 0.00 | 0.18 | 0.18 | 74 | 1016.2 |
| 20260506123102 | 16 | 5 | 4.8 | 11.3 | 0.00 | 0.18 | 0.18 | 73 | 1016.2 |
| 20260506123002 | 16 | 2 | 4.8 | 11.3 | 0.00 | 0.18 | 0.18 | 74 | 1016.0 |
| 20260506122902 | 16 | 2 | 4.8 | 11.3 | 0.00 | 0.18 | 0.18 | 73 | 1016.1 |
| 20260506122823 | 16 | 2 | 4.8 | 11.3 | 0.00 | 0.18 | 0.18 | 73 | 1016.1 |
| 20260506122702 | 16 | 5 | 4.8 | 11.3 | 0.00 | 0.18 | 0.18 | 74 | 1016.0 |
| 20260506122602 | 16 | 5 | 4.8 | 11.3 | 0.00 | 0.18 | 0.18 | 72 | 1016.1 |
| 20260506122502 | 15 | 4 | 4.8 | 9.7 | 0.00 | 0.18 | 0.18 | 72 | 1016.2 |
| 20260506122402 | 15 | 4 | 4.8 | 9.7 | 0.00 | 0.18 | 0.18 | 72 | 1016.1 |
| 20260506122305 | 15 | 4 | 4.8 | 9.7 | 0.00 | 0.18 | 0.18 | 72 | 1016.3 |
| 20260506122203 | 15 | 2 | 4.8 | 9.7 | 0.00 | 0.18 | 0.18 | 73 | 1016.2 |
| 20260506122103 | 16 | 360 | 4.8 | 9.7 | 0.00 | 0.18 | 0.18 | 73 | 1016.2 |
| 20260506122002 | 16 | 359 | 3.2 | 9.7 | 0.00 | 0.18 | 0.18 | 73 | 1016.0 |
| 20260506121903 | 16 | 5 | 3.2 | 9.7 | 0.00 | 0.18 | 0.18 | 73 | 1016.1 |
| 20260506121802 | 16 | 5 | 3.2 | 9.7 | 0.00 | 0.18 | 0.18 | 75 | 1016.2 |
| 20260506121702 | 16 | 5 | 3.2 | 9.7 | 0.00 | 0.18 | 0.18 | 76 | 1016.1 |
| 20260506121603 | 16 | 6 | 3.2 | 6.4 | 0.00 | 0.18 | 0.18 | 75 | 1016.3 |
| 20260506121503 | 16 | 1 | 3.2 | 6.4 | 0.00 | 0.18 | 0.18 | 76 | 1016.2 |
| 20260506121403 | 16 | 359 | 3.2 | 6.4 | 0.00 | 0.18 | 0.18 | 75 | 1016.2 |
| 20260506121302 | 16 | 359 | 3.2 | 6.4 | 0.00 | 0.18 | 0.18 | 75 | 1016.3 |
| 20260506121203 | 16 | 358 | 3.2 | 9.7 | 0.00 | 0.18 | 0.18 | 74 | 1016.3 |
| 20260506121103 | 16 | 359 | 3.2 | 9.7 | 0.00 | 0.18 | 0.18 | 76 | 1016.1 |
| 20260506121002 | 16 | 358 | 3.2 | 9.7 | 0.00 | 0.18 | 0.18 | 76 | 1016.3 |
| 20260506120902 | 16 | 356 | 3.2 | 9.7 | 0.00 | 0.18 | 0.18 | 76 | 1016.3 |
| 20260506120802 | 16 | 354 | 4.8 | 9.7 | 0.00 | 0.18 | 0.18 | 75 | 1016.3 |
| 20260506120703 | 16 | 354 | 4.8 | 9.7 | 0.00 | 0.18 | 0.18 | 75 | 1016.3 |
| 20260506120602 | 16 | 355 | 4.8 | 9.7 | 0.00 | 0.18 | 0.18 | 75 | 1016.3 |
| 20260506120502 | 16 | 350 | 4.8 | 9.7 | 0.00 | 0.18 | 0.18 | 76 | 1016.2 |
| 20260506120424 | 16 | 352 | 4.8 | 9.7 | 0.00 | 0.18 | 0.18 | 75 | 1016.3 |
| 20260506120303 | 16 | 352 | 4.8 | 9.7 | 0.00 | 0.18 | 0.18 | 76 | 1016.4 |
| 20260506120202 | 16 | 348 | 4.8 | 9.7 | 0.00 | 0.18 | 0.18 | 74 | 1016.5 |
| 20260506120003 | 15 | 346 | 4.8 | 9.7 | 0.00 | 0.18 | 0.18 | 77 | 1016.4 |
| 20260506115903 | 15 | 347 | 4.8 | 12.9 | 0.00 | 0.18 | 0.18 | 75 | 1016.4 |
| 20260506115802 | 15 | 348 | 4.8 | 12.9 | 0.00 | 0.18 | 0.18 | 75 | 1016.3 |
| 20260506115703 | 15 | 350 | 4.8 | 12.9 | 0.00 | 0.18 | 0.18 | 76 | 1016.4 |
| 20260506115623 | 15 | 350 | 4.8 | 12.9 | 0.00 | 0.18 | 0.18 | 75 | 1016.3 |
| 20260506115503 | 15 | 354 | 4.8 | 12.9 | 0.00 | 0.18 | 0.18 | 76 | 1016.4 |
| 20260506115403 | 15 | 353 | 4.8 | 12.9 | 0.00 | 0.18 | 0.18 | 78 | 1016.3 |
| 20260506115306 | 15 | 355 | 4.8 | 12.9 | 0.00 | 0.18 | 0.18 | 78 | 1016.4 |
| 20260506115224 | 15 | 355 | 4.8 | 12.9 | 0.00 | 0.18 | 0.18 | 78 | 1016.4 |
| 20260506115102 | 15 | 358 | 6.4 | 12.9 | 0.00 | 0.18 | 0.18 | 77 | 1016.2 |
| 20260506115003 | 15 | 360 | 6.4 | 12.9 | 0.00 | 0.18 | 0.18 | 77 | 1016.4 |
| 20260506114903 | 15 | 2 | 4.8 | 12.9 | 0.00 | 0.18 | 0.18 | 78 | 1016.3 |
| 20260506114802 | 15 | 4 | 4.8 | 6.4 | 0.00 | 0.18 | 0.18 | 79 | 1016.4 |
| 20260506114724 | 15 | 4 | 4.8 | 6.4 | 0.00 | 0.18 | 0.18 | 79 | 1016.4 |
| 20260506114623 | 15 | 3 | 4.8 | 6.4 | 0.00 | 0.18 | 0.18 | 79 | 1016.4 |
| 20260506114503 | 15 | 3 | 4.8 | 6.4 | 0.00 | 0.18 | 0.18 | 79 | 1016.3 |
| 20260506114402 | 15 | 360 | 4.8 | 9.7 | 0.00 | 0.18 | 0.18 | 80 | 1016.5 |
| 20260506114302 | 15 | 2 | 4.8 | 9.7 | 0.00 | 0.18 | 0.18 | 80 | 1016.4 |
| 20260506114203 | 15 | 4 | 4.8 | 9.7 | 0.00 | 0.18 | 0.18 | 80 | 1016.4 |
| 20260506114103 | 15 | 4 | 4.8 | 9.7 | 0.00 | 0.18 | 0.18 | 80 | 1016.3 |
| 20260506114002 | 15 | 3 | 4.8 | 9.7 | 0.00 | 0.18 | 0.18 | 81 | 1016.5 |
| 20260506113902 | 15 | 3 | 4.8 | 9.7 | 0.00 | 0.18 | 0.18 | 81 | 1016.5 |
| 20260506113803 | 15 | 2 | 4.8 | 9.7 | 0.00 | 0.18 | 0.18 | 80 | 1016.3 |
| 20260506113703 | 15 | 2 | 4.8 | 9.7 | 0.00 | 0.18 | 0.18 | 80 | 1016.3 |
| 20260506113602 | 15 | 1 | 3.2 | 9.7 | 0.00 | 0.18 | 0.18 | 80 | 1016.5 |
| 20260506113502 | 15 | 1 | 3.2 | 9.7 | 0.00 | 0.18 | 0.18 | 80 | 1016.5 |
| 20260506113423 | 15 | 5 | 3.2 | 9.7 | 0.00 | 0.18 | 0.18 | 81 | 1016.5 |
| 20260506113302 | 15 | 8 | 3.2 | 6.4 | 0.00 | 0.18 | 0.18 | 81 | 1016.4 |
| 20260506113202 | 15 | 7 | 3.2 | 6.4 | 0.00 | 0.18 | 0.18 | 83 | 1016.5 |
| 20260506113124 | 15 | 3 | 3.2 | 6.4 | 0.00 | 0.18 | 0.18 | 82 | 1016.5 |
| 20260506113002 | 15 | 2 | 4.8 | 6.4 | 0.00 | 0.18 | 0.18 | 82 | 1016.5 |
| 20260506112903 | 15 | 4 | 4.8 | 6.4 | 0.00 | 0.18 | 0.18 | 82 | 1016.7 |
| 20260506112803 | 15 | 3 | 4.8 | 6.4 | 0.00 | 0.18 | 0.18 | 81 | 1016.7 |
| 20260506112702 | 15 | 4 | 4.8 | 11.3 | 0.00 | 0.18 | 0.18 | 81 | 1016.7 |
| 20260506112602 | 15 | 5 | 4.8 | 11.3 | 0.00 | 0.18 | 0.18 | 82 | 1016.8 |
| 20260506112503 | 15 | 6 | 4.8 | 11.3 | 0.00 | 0.18 | 0.18 | 82 | 1016.6 |
| 20260506112403 | 15 | 4 | 4.8 | 11.3 | 0.00 | 0.18 | 0.18 | 82 | 1016.6 |
| 20260506112305 | 15 | 4 | 4.8 | 11.3 | 0.00 | 0.18 | 0.18 | 82 | 1016.6 |
| 20260506112202 | 15 | 5 | 4.8 | 11.3 | 0.00 | 0.18 | 0.18 | 82 | 1016.7 |
| 20260506112103 | 15 | 7 | 4.8 | 11.3 | 0.00 | 0.18 | 0.18 | 82 | 1016.6 |
| 20260506112003 | 15 | 7 | 4.8 | 11.3 | 0.00 | 0.18 | 0.18 | 82 | 1016.6 |
| 20260506111923 | 15 | 7 | 4.8 | 11.3 | 0.00 | 0.18 | 0.18 | 82 | 1016.5 |
| 20260506111803 | 15 | 5 | 4.8 | 11.3 | 0.00 | 0.18 | 0.18 | 81 | 1016.6 |
| 20260506111703 | 15 | 5 | 4.8 | 11.3 | 0.00 | 0.18 | 0.18 | 81 | 1016.7 |
| 20260506111603 | 15 | 5 | 4.8 | 9.7 | 0.00 | 0.18 | 0.18 | 82 | 1016.7 |
| 20260506111503 | 15 | 358 | 4.8 | 9.7 | 0.00 | 0.18 | 0.18 | 82 | 1016.5 |
| 20260506111403 | 15 | 359 | 4.8 | 9.7 | 0.00 | 0.18 | 0.18 | 84 | 1016.4 |
| 20260506111302 | 15 | 1 | 4.8 | 9.7 | 0.00 | 0.18 | 0.18 | 83 | 1016.6 |
| 20260506111224 | 15 | 357 | 4.8 | 9.7 | 0.00 | 0.18 | 0.18 | 83 | 1016.6 |
| 20260506111103 | 15 | 356 | 6.4 | 12.9 | 0.00 | 0.18 | 0.18 | 84 | 1016.7 |
| 20260506111003 | 15 | 356 | 4.8 | 12.9 | 0.00 | 0.18 | 0.18 | 83 | 1016.7 |
| 20260506110903 | 15 | 358 | 4.8 | 12.9 | 0.00 | 0.18 | 0.18 | 83 | 1016.7 |
| 20260506110803 | 15 | 359 | 4.8 | 12.9 | 0.00 | 0.18 | 0.18 | 84 | 1016.7 |
| 20260506110703 | 15 | 358 | 4.8 | 12.9 | 0.00 | 0.18 | 0.18 | 84 | 1016.6 |
| 20260506110602 | 15 | 357 | 6.4 | 12.9 | 0.00 | 0.18 | 0.18 | 84 | 1016.5 |
| 20260506110503 | 15 | 360 | 6.4 | 12.9 | 0.00 | 0.18 | 0.18 | 83 | 1016.6 |
| 20260506110423 | 15 | 360 | 6.4 | 12.9 | 0.00 | 0.18 | 0.18 | 83 | 1016.6 |
| 20260506110324 | 15 | 1 | 4.8 | 12.9 | 0.00 | 0.18 | 0.18 | 83 | 1016.7 |
| 20260506110223 | 15 | 360 | 4.8 | 12.9 | 0.00 | 0.18 | 0.18 | 83 | 1016.9 |
| 20260506110003 | 14 | 11 | 4.8 | 9.7 | 0.00 | 0.18 | 0.18 | 84 | 1016.5 |
| 20260506105903 | 14 | 11 | 4.8 | 9.7 | 0.00 | 0.18 | 0.18 | 84 | 1016.5 |
| 20260506105824 | 14 | 10 | 4.8 | 9.7 | 0.00 | 0.18 | 0.18 | 84 | 1016.6 |
| 20260506105703 | 14 | 7 | 4.8 | 9.7 | 0.00 | 0.18 | 0.18 | 84 | 1016.6 |
| 20260506105602 | 14 | 9 | 4.8 | 9.7 | 0.00 | 0.18 | 0.18 | 85 | 1016.6 |
| 20260506105503 | 14 | 9 | 4.8 | 9.7 | 0.00 | 0.18 | 0.18 | 86 | 1016.8 |
| 20260506105403 | 14 | 8 | 4.8 | 9.7 | 0.00 | 0.18 | 0.18 | 86 | 1016.5 |
| 20260506105305 | 13 | 6 | 4.8 | 9.7 | 0.00 | 0.18 | 0.18 | 86 | 1016.6 |
| 20260506105202 | 13 | 6 | 4.8 | 9.7 | 0.00 | 0.18 | 0.18 | 85 | 1016.6 |
| 20260506105103 | 13 | 3 | 4.8 | 9.7 | 0.00 | 0.18 | 0.18 | 85 | 1016.7 |
| 20260506105003 | 13 | 2 | 4.8 | 9.7 | 0.00 | 0.18 | 0.18 | 86 | 1016.7 |
| 20260506104903 | 13 | 1 | 4.8 | 9.7 | 0.00 | 0.18 | 0.18 | 86 | 1016.6 |
| 20260506104824 | 13 | 1 | 4.8 | 9.7 | 0.00 | 0.18 | 0.18 | 87 | 1016.6 |
| 20260506104724 | 13 | 1 | 4.8 | 9.7 | 0.00 | 0.18 | 0.18 | 87 | 1016.6 |
| 20260506104603 | 13 | 4 | 4.8 | 9.7 | 0.00 | 0.18 | 0.18 | 87 | 1016.6 |
| 20260506104503 | 13 | 5 | 4.8 | 6.4 | 0.00 | 0.18 | 0.18 | 87 | 1016.7 |
| 20260506104424 | 13 | 5 | 4.8 | 6.4 | 0.00 | 0.18 | 0.18 | 87 | 1016.7 |
| 20260506104302 | 13 | 8 | 4.8 | 6.4 | 0.00 | 0.18 | 0.18 | 87 | 1016.7 |
| 20260506104203 | 13 | 9 | 4.8 | 6.4 | 0.00 | 0.18 | 0.18 | 87 | 1016.6 |
| 20260506104102 | 13 | 9 | 4.8 | 6.4 | 0.00 | 0.18 | 0.18 | 87 | 1016.7 |
| 20260506104003 | 13 | 9 | 4.8 | 6.4 | 0.00 | 0.18 | 0.18 | 87 | 1016.7 |
| 20260506103903 | 13 | 10 | 3.2 | 6.4 | 0.00 | 0.18 | 0.18 | 87 | 1016.7 |
| 20260506103824 | 13 | 10 | 3.2 | 6.4 | 0.00 | 0.18 | 0.18 | 87 | 1016.7 |
| 20260506103703 | 13 | 9 | 4.8 | 6.4 | 0.00 | 0.18 | 0.18 | 87 | 1016.7 |
| 20260506103603 | 13 | 9 | 4.8 | 6.4 | 0.00 | 0.18 | 0.18 | 87 | 1016.7 |
| 20260506103503 | 13 | 9 | 4.8 | 6.4 | 0.00 | 0.18 | 0.18 | 87 | 1016.7 |
| 20260506103403 | 13 | 11 | 3.2 | 6.4 | 0.00 | 0.18 | 0.18 | 87 | 1016.8 |
| 20260506103302 | 13 | 11 | 3.2 | 6.4 | 0.00 | 0.18 | 0.18 | 87 | 1016.7 |
| 20260506103203 | 13 | 11 | 3.2 | 6.4 | 0.00 | 0.18 | 0.18 | 87 | 1016.8 |
| 20260506103103 | 13 | 11 | 3.2 | 6.4 | 0.00 | 0.18 | 0.18 | 87 | 1016.8 |
| 20260506103003 | 13 | 12 | 3.2 | 6.4 | 0.00 | 0.18 | 0.18 | 87 | 1016.7 |
| 20260506102903 | 13 | 13 | 3.2 | 6.4 | 0.00 | 0.18 | 0.18 | 87 | 1016.7 |
| 20260506102802 | 13 | 14 | 3.2 | 6.4 | 0.00 | 0.18 | 0.18 | 87 | 1016.8 |
| 20260506102703 | 13 | 14 | 3.2 | 6.4 | 0.00 | 0.18 | 0.18 | 87 | 1016.8 |
| 20260506102603 | 13 | 16 | 3.2 | 6.4 | 0.00 | 0.18 | 0.18 | 87 | 1016.8 |
| 20260506102503 | 13 | 16 | 3.2 | 6.4 | 0.00 | 0.18 | 0.18 | 87 | 1016.7 |
| 20260506102403 | 13 | 16 | 3.2 | 6.4 | 0.00 | 0.18 | 0.18 | 87 | 1016.6 |
| 20260506102324 | 13 | 15 | 3.2 | 6.4 | 0.00 | 0.18 | 0.18 | 87 | 1016.6 |
| 20260506102203 | 13 | 16 | 3.2 | 6.4 | 0.00 | 0.18 | 0.18 | 86 | 1016.6 |
| 20260506102103 | 13 | 16 | 3.2 | 6.4 | 0.00 | 0.18 | 0.18 | 86 | 1016.6 |
| 20260506102003 | 13 | 13 | 3.2 | 6.4 | 0.00 | 0.20 | 0.18 | 86 | 1016.6 |
| 20260506101924 | 13 | 12 | 3.2 | 6.4 | 0.00 | 0.20 | 0.18 | 86 | 1016.7 |
| 20260506101824 | 13 | 12 | 3.2 | 6.4 | 0.00 | 0.23 | 0.18 | 85 | 1016.5 |
| 20260506101702 | 13 | 11 | 3.2 | 6.4 | 0.00 | 0.23 | 0.18 | 85 | 1016.6 |
| 20260506101603 | 13 | 9 | 3.2 | 4.8 | 0.00 | 0.25 | 0.18 | 85 | 1016.6 |
| 20260506101503 | 13 | 9 | 3.2 | 4.8 | 0.00 | 0.25 | 0.18 | 85 | 1016.6 |
| 20260506101403 | 13 | 8 | 3.2 | 4.8 | 0.00 | 0.25 | 0.18 | 85 | 1016.5 |
| 20260506101303 | 13 | 8 | 3.2 | 4.8 | 0.00 | 0.25 | 0.18 | 84 | 1016.8 |
| 20260506101203 | 13 | 10 | 3.2 | 4.8 | 0.00 | 0.25 | 0.18 | 84 | 1016.5 |
| 20260506101124 | 13 | 10 | 3.2 | 4.8 | 0.00 | 0.25 | 0.18 | 84 | 1016.5 |
| 20260506101003 | 13 | 27 | 3.2 | 4.8 | 0.00 | 0.25 | 0.18 | 83 | 1016.6 |
| 20260506100903 | 13 | 36 | 3.2 | 4.8 | 0.00 | 0.25 | 0.18 | 83 | 1016.6 |
| 20260506100803 | 13 | 40 | 3.2 | 4.8 | 0.00 | 0.25 | 0.18 | 82 | 1016.5 |
| 20260506100702 | 13 | 40 | 3.2 | 4.8 | 0.00 | 0.25 | 0.18 | 82 | 1016.5 |
| 20260506100603 | 13 | 45 | 3.2 | 4.8 | 0.00 | 0.25 | 0.18 | 82 | 1016.5 |
| 20260506100502 | 13 | 51 | 3.2 | 4.8 | 0.00 | 0.25 | 0.18 | 82 | 1016.5 |
| 20260506100424 | 13 | 61 | 1.6 | 4.8 | 0.00 | 0.25 | 0.18 | 81 | 1016.5 |
| 20260506100324 | 14 | 76 | 1.6 | 4.8 | 0.00 | 0.25 | 0.18 | 81 | 1016.6 |
| 20260506100203 | 14 | 90 | 1.6 | 4.8 | 0.00 | 0.25 | 0.18 | 81 | 1016.5 |
| 20260506100003 | 15 | 90 | 1.6 | 3.2 | 0.00 | 0.25 | 0.18 | 81 | 1016.6 |
| 20260506095924 | 15 | 90 | 1.6 | 3.2 | 0.00 | 0.25 | 0.18 | 81 | 1016.5 |
| 20260506095803 | 15 | 90 | 1.6 | 3.2 | 0.00 | 0.25 | 0.18 | 80 | 1016.4 |
| 20260506095703 | 15 | 90 | 1.6 | 3.2 | 0.00 | 0.25 | 0.18 | 80 | 1016.6 |
| 20260506095603 | 15 | 90 | 1.6 | 3.2 | 0.00 | 0.25 | 0.18 | 80 | 1016.5 |
| 20260506095524 | 15 | 90 | 1.6 | 3.2 | 0.00 | 0.25 | 0.18 | 80 | 1016.6 |
| 20260506095403 | 15 | 90 | 1.6 | 3.2 | 0.00 | 0.25 | 0.18 | 80 | 1016.5 |
| 20260506095305 | 15 | 90 | 1.6 | 3.2 | 0.00 | 0.25 | 0.18 | 80 | 1016.6 |
| 20260506095203 | 15 | 90 | 1.6 | 3.2 | 0.00 | 0.25 | 0.18 | 79 | 1016.4 |
| 20260506095124 | 15 | 90 | 1.6 | 3.2 | 0.00 | 0.25 | 0.18 | 79 | 1016.4 |
| 20260506095003 | 15 | 90 | 0.0 | 1.6 | 0.00 | 0.25 | 0.18 | 78 | 1016.3 |
| 20260506094902 | 15 | 90 | 0.0 | 1.6 | 0.00 | 0.25 | 0.18 | 78 | 1016.7 |
| 20260506094803 | 15 | 90 | 0.0 | 1.6 | 0.00 | 0.25 | 0.18 | 78 | 1016.8 |
| 20260506094703 | 15 | 90 | 0.0 | 1.6 | 0.00 | 0.25 | 0.18 | 80 | 1016.6 |
| 20260506094602 | 16 | 90 | 0.0 | 1.6 | 0.00 | 0.25 | 0.18 | 81 | 1016.8 |
| 20260506094503 | 16 | 90 | 0.0 | 1.6 | 0.00 | 0.25 | 0.18 | 81 | 1016.7 |
| 20260506094403 | 16 | 90 | 0.0 | 1.6 | 0.00 | 0.25 | 0.18 | 81 | 1016.6 |
| 20260506094303 | 16 | 90 | 0.0 | 1.6 | 0.00 | 0.25 | 0.18 | 81 | 1016.6 |
| 20260506094224 | 16 | 90 | 0.0 | 3.2 | 0.00 | 0.25 | 0.18 | 82 | 1016.4 |
| 20260506094103 | 15 | 90 | 1.6 | 3.2 | 0.00 | 0.25 | 0.18 | 83 | 1016.6 |
| 20260506094024 | 15 | 90 | 1.6 | 3.2 | 0.00 | 0.25 | 0.18 | 83 | 1016.8 |
| 20260506093903 | 15 | 90 | 1.6 | 3.2 | 0.00 | 0.25 | 0.18 | 83 | 1016.6 |
| 20260506093803 | 15 | 90 | 1.6 | 3.2 | 0.00 | 0.25 | 0.18 | 83 | 1016.7 |
| 20260506093724 | 15 | 90 | 1.6 | 3.2 | 0.00 | 0.25 | 0.18 | 82 | 1016.7 |
| 20260506093603 | 15 | 90 | 1.6 | 3.2 | 0.00 | 0.25 | 0.18 | 81 | 1016.5 |
| 20260506093502 | 15 | 90 | 1.6 | 3.2 | 0.00 | 0.25 | 0.18 | 81 | 1016.6 |
| 20260506093402 | 15 | 90 | 1.6 | 3.2 | 0.00 | 0.25 | 0.18 | 81 | 1016.6 |
| 20260506093303 | 16 | 90 | 1.6 | 3.2 | 0.00 | 0.25 | 0.18 | 81 | 1016.5 |
| 20260506093203 | 16 | 90 | 1.6 | 3.2 | 0.00 | 0.25 | 0.18 | 82 | 1016.6 |
| 20260506093124 | 16 | 90 | 1.6 | 3.2 | 0.00 | 0.25 | 0.18 | 82 | 1016.6 |
| 20260506093003 | 16 | 90 | 1.6 | 3.2 | 0.00 | 0.25 | 0.18 | 84 | 1016.6 |
| 20260506092903 | 15 | 90 | 1.6 | 3.2 | 0.00 | 0.25 | 0.18 | 83 | 1016.5 |
| 20260506092803 | 15 | 90 | 1.6 | 3.2 | 0.00 | 0.25 | 0.18 | 82 | 1016.6 |
| 20260506092703 | 15 | 90 | 1.6 | 3.2 | 0.00 | 0.25 | 0.18 | 82 | 1016.6 |
| 20260506092602 | 15 | 90 | 1.6 | 3.2 | 0.00 | 0.25 | 0.18 | 82 | 1016.8 |
| 20260506092503 | 15 | 90 | 1.6 | 3.2 | 0.00 | 0.25 | 0.18 | 82 | 1016.4 |
| 20260506092403 | 15 | 90 | 1.6 | 3.2 | 0.00 | 0.25 | 0.18 | 83 | 1016.6 |
| 20260506092324 | 16 | 90 | 1.6 | 3.2 | 0.00 | 0.25 | 0.18 | 83 | 1016.6 |
| 20260506092203 | 16 | 90 | 1.6 | 3.2 | 0.00 | 0.28 | 0.18 | 85 | 1016.5 |
| 20260506092103 | 16 | 90 | 1.6 | 3.2 | 0.00 | 0.28 | 0.18 | 86 | 1016.5 |
| 20260506092003 | 16 | 86 | 1.6 | 3.2 | 0.00 | 0.30 | 0.18 | 87 | 1016.7 |
| 20260506091903 | 15 | 86 | 1.6 | 4.8 | 0.00 | 0.30 | 0.18 | 87 | 1016.5 |
| 20260506091824 | 15 | 83 | 1.6 | 4.8 | 0.00 | 0.30 | 0.18 | 88 | 1016.4 |
| 20260506091703 | 15 | 80 | 1.6 | 4.8 | 0.00 | 0.30 | 0.18 | 88 | 1016.5 |
| 20260506091624 | 14 | 76 | 1.6 | 4.8 | 0.00 | 0.30 | 0.18 | 88 | 1016.6 |
| 20260506091524 | 14 | 76 | 1.6 | 4.8 | 0.00 | 0.30 | 0.18 | 88 | 1016.6 |
| 20260506091403 | 14 | 63 | 1.6 | 4.8 | 0.00 | 0.30 | 0.18 | 91 | 1016.5 |
| 20260506091303 | 13 | 58 | 1.6 | 4.8 | 0.00 | 0.33 | 0.18 | 92 | 1016.5 |
| 20260506091202 | 13 | 58 | 1.6 | 4.8 | 0.00 | 0.33 | 0.18 | 92 | 1016.5 |
| 20260506091103 | 13 | 58 | 1.6 | 4.8 | 0.00 | 0.33 | 0.18 | 92 | 1016.5 |
| 20260506091003 | 13 | 56 | 1.6 | 4.8 | 0.00 | 0.33 | 0.18 | 93 | 1016.6 |
| 20260506090903 | 13 | 55 | 1.6 | 4.8 | 0.00 | 0.36 | 0.18 | 94 | 1016.4 |
| 20260506090803 | 13 | 46 | 1.6 | 3.2 | 0.00 | 0.38 | 0.18 | 96 | 1016.5 |
| 20260506090703 | 13 | 46 | 1.6 | 3.2 | 0.00 | 0.38 | 0.18 | 96 | 1016.5 |
| 20260506090603 | 13 | 47 | 1.6 | 3.2 | 0.00 | 0.41 | 0.18 | 96 | 1016.5 |
| 20260506090503 | 13 | 48 | 1.6 | 3.2 | 0.00 | 0.41 | 0.18 | 97 | 1016.6 |
| 20260506090403 | 13 | 50 | 1.6 | 3.2 | 0.00 | 0.41 | 0.18 | 97 | 1016.6 |
| 20260506090303 | 13 | 51 | 1.6 | 3.2 | 0.00 | 0.41 | 0.18 | 98 | 1016.5 |
| 20260506090203 | 13 | 50 | 1.6 | 3.2 | 0.00 | 0.41 | 0.18 | 98 | 1016.5 |
| 20260506090003 | 12 | 49 | 1.6 | 3.2 | 0.00 | 0.41 | 0.18 | 98 | 1016.5 |
| 20260506085903 | 12 | 47 | 1.6 | 3.2 | 0.00 | 0.41 | 0.18 | 98 | 1016.6 |
| 20260506085824 | 12 | 47 | 1.6 | 3.2 | 0.00 | 0.41 | 0.18 | 98 | 1016.6 |
| 20260506085703 | 12 | 52 | 1.6 | 3.2 | 0.00 | 0.41 | 0.18 | 98 | 1016.5 |
| 20260506085603 | 12 | 48 | 1.6 | 3.2 | 0.00 | 0.41 | 0.18 | 99 | 1016.8 |
| 20260506085503 | 12 | 48 | 1.6 | 3.2 | 0.00 | 0.41 | 0.18 | 99 | 1016.8 |
| 20260506085403 | 13 | 48 | 1.6 | 3.2 | 0.00 | 0.41 | 0.18 | 98 | 1016.7 |
| 20260506085305 | 13 | 47 | 1.6 | 3.2 | 0.00 | 0.41 | 0.18 | 99 | 1016.8 |
| 20260506085203 | 13 | 42 | 1.6 | 3.2 | 0.00 | 0.41 | 0.18 | 99 | 1016.5 |
| 20260506085124 | 13 | 42 | 1.6 | 3.2 | 0.00 | 0.41 | 0.18 | 99 | 1016.6 |
| 20260506085003 | 13 | 39 | 1.6 | 3.2 | 0.00 | 0.41 | 0.18 | 99 | 1016.6 |
| 20260506084903 | 13 | 38 | 1.6 | 3.2 | 0.00 | 0.41 | 0.18 | 99 | 1016.6 |
| 20260506084824 | 13 | 37 | 1.6 | 3.2 | 0.00 | 0.41 | 0.18 | 99 | 1016.5 |
| 20260506084703 | 13 | 34 | 1.6 | 3.2 | 0.00 | 0.41 | 0.18 | 99 | 1016.7 |
| 20260506084603 | 13 | 28 | 1.6 | 3.2 | 0.00 | 0.41 | 0.18 | 99 | 1016.6 |
| 20260506084524 | 12 | 32 | 1.6 | 3.2 | 0.00 | 0.41 | 0.18 | 99 | 1016.7 |
| 20260506084403 | 12 | 32 | 1.6 | 3.2 | 0.00 | 0.41 | 0.18 | 99 | 1016.6 |
| 20260506084303 | 12 | 32 | 1.6 | 3.2 | 0.00 | 0.41 | 0.18 | 99 | 1016.6 |
| 20260506084203 | 12 | 38 | 1.6 | 3.2 | 0.00 | 0.41 | 0.18 | 99 | 1016.7 |
| 20260506084103 | 12 | 40 | 1.6 | 3.2 | 0.00 | 0.41 | 0.18 | 99 | 1016.6 |
| 20260506084024 | 12 | 40 | 1.6 | 3.2 | 0.00 | 0.41 | 0.18 | 99 | 1016.6 |
| 20260506083903 | 12 | 51 | 1.6 | 3.2 | 0.00 | 0.41 | 0.18 | 99 | 1016.5 |
| 20260506083824 | 12 | 51 | 1.6 | 3.2 | 0.00 | 0.41 | 0.18 | 99 | 1016.5 |
| 20260506083703 | 12 | 52 | 1.6 | 3.2 | 0.00 | 0.41 | 0.18 | 99 | 1016.7 |
| 20260506083603 | 12 | 53 | 1.6 | 3.2 | 0.00 | 0.41 | 0.18 | 99 | 1016.5 |
| 20260506083503 | 12 | 53 | 1.6 | 3.2 | 0.00 | 0.41 | 0.18 | 99 | 1016.5 |
| 20260506083403 | 12 | 55 | 1.6 | 3.2 | 0.00 | 0.41 | 0.18 | 99 | 1016.6 |
| 20260506083303 | 13 | 55 | 1.6 | 3.2 | 0.00 | 0.41 | 0.18 | 99 | 1016.4 |
| 20260506083224 | 13 | 56 | 1.6 | 3.2 | 0.00 | 0.41 | 0.18 | 99 | 1016.6 |
| 20260506083103 | 13 | 59 | 1.6 | 3.2 | 0.00 | 0.41 | 0.18 | 99 | 1016.5 |
| 20260506083003 | 13 | 61 | 1.6 | 3.2 | 0.00 | 0.41 | 0.18 | 99 | 1016.6 |
| 20260506082903 | 13 | 60 | 1.6 | 3.2 | 0.00 | 0.41 | 0.18 | 99 | 1016.7 |
| 20260506082803 | 12 | 49 | 1.6 | 3.2 | 0.00 | 0.41 | 0.18 | 99 | 1016.6 |
| 20260506082703 | 12 | 48 | 1.6 | 3.2 | 0.00 | 0.41 | 0.18 | 99 | 1016.7 |
| 20260506082603 | 12 | 48 | 1.6 | 3.2 | 0.00 | 0.41 | 0.18 | 99 | 1016.7 |
| 20260506082503 | 12 | 49 | 1.6 | 3.2 | 0.00 | 0.41 | 0.18 | 99 | 1016.6 |
| 20260506082403 | 12 | 48 | 1.6 | 3.2 | 0.00 | 0.41 | 0.18 | 99 | 1016.7 |
| 20260506082305 | 12 | 47 | 1.6 | 3.2 | 0.00 | 0.41 | 0.18 | 99 | 1016.8 |
| 20260506082203 | 12 | 47 | 1.6 | 3.2 | 0.00 | 0.41 | 0.18 | 99 | 1016.6 |
| 20260506082103 | 12 | 45 | 1.6 | 3.2 | 0.00 | 0.41 | 0.18 | 99 | 1016.6 |
| 20260506082003 | 11 | 45 | 1.6 | 3.2 | 0.00 | 0.41 | 0.18 | 99 | 1016.4 |
| 20260506081903 | 11 | 45 | 1.6 | 3.2 | 0.00 | 0.41 | 0.18 | 99 | 1016.4 |
| 20260506081824 | 11 | 45 | 1.6 | 3.2 | 0.00 | 0.41 | 0.18 | 99 | 1016.6 |
| 20260506081703 | 11 | 45 | 1.6 | 3.2 | 0.00 | 0.41 | 0.18 | 99 | 1016.6 |
| 20260506081624 | 11 | 47 | 1.6 | 3.2 | 0.00 | 0.41 | 0.18 | 99 | 1016.8 |
| 20260506081503 | 11 | 46 | 1.6 | 3.2 | 0.00 | 0.41 | 0.18 | 99 | 1016.7 |
| 20260506081403 | 11 | 45 | 1.6 | 3.2 | 0.00 | 0.41 | 0.18 | 99 | 1016.7 |
| 20260506081302 | 11 | 45 | 1.6 | 3.2 | 0.00 | 0.41 | 0.18 | 99 | 1016.7 |
| 20260506081224 | 11 | 44 | 1.6 | 3.2 | 0.00 | 0.41 | 0.18 | 99 | 1016.7 |
| 20260506081103 | 11 | 44 | 1.6 | 3.2 | 0.00 | 0.41 | 0.18 | 99 | 1016.7 |
| 20260506081003 | 11 | 45 | 1.6 | 3.2 | 0.00 | 0.41 | 0.18 | 99 | 1016.6 |
| 20260506080903 | 11 | 46 | 1.6 | 3.2 | 0.00 | 0.41 | 0.18 | 99 | 1016.6 |
| 20260506080803 | 11 | 47 | 1.6 | 3.2 | 0.00 | 0.41 | 0.18 | 99 | 1016.6 |
| 20260506080703 | 11 | 47 | 1.6 | 3.2 | 0.00 | 0.41 | 0.18 | 99 | 1016.7 |
| 20260506080603 | 11 | 46 | 1.6 | 3.2 | 0.00 | 0.41 | 0.18 | 99 | 1016.7 |
| 20260506080503 | 11 | 46 | 1.6 | 3.2 | 0.00 | 0.41 | 0.18 | 99 | 1016.8 |
| 20260506080403 | 11 | 46 | 1.6 | 3.2 | 0.00 | 0.41 | 0.18 | 99 | 1016.6 |
| 20260506080324 | 11 | 46 | 1.6 | 3.2 | 0.00 | 0.41 | 0.18 | 99 | 1016.6 |
| 20260506080203 | 11 | 47 | 1.6 | 3.2 | 0.00 | 0.41 | 0.18 | 99 | 1016.6 |
| 20260506073503 | 10 | 44 | 1.6 | 3.2 | 0.00 | 0.41 | 0.18 | 99 | 1016.8 |
| 20260506073424 | 10 | 44 | 1.6 | 3.2 | 0.00 | 0.43 | 0.18 | 99 | 1016.8 |
| 20260506073324 | 10 | 44 | 1.6 | 3.2 | 0.00 | 0.43 | 0.18 | 99 | 1016.7 |
| 20260506073203 | 10 | 42 | 1.6 | 3.2 | 0.00 | 0.43 | 0.18 | 99 | 1016.7 |
| 20260506073103 | 10 | 42 | 1.6 | 3.2 | 0.00 | 0.43 | 0.18 | 99 | 1016.7 |
| 20260506073003 | 10 | 42 | 1.6 | 3.2 | 0.00 | 0.43 | 0.18 | 99 | 1016.7 |
| 20260506072903 | 10 | 43 | 1.6 | 3.2 | 0.00 | 0.43 | 0.18 | 99 | 1016.6 |
| 20260506072803 | 10 | 43 | 1.6 | 3.2 | 0.00 | 0.43 | 0.18 | 99 | 1016.5 |
| 20260506072703 | 10 | 40 | 0.0 | 1.6 | 0.00 | 0.43 | 0.18 | 99 | 1016.6 |
| 20260506072603 | 10 | 41 | 0.0 | 1.6 | 0.00 | 0.43 | 0.18 | 99 | 1016.6 |
| 20260506072503 | 10 | 41 | 0.0 | 1.6 | 0.00 | 0.43 | 0.18 | 99 | 1016.6 |
| 20260506072403 | 10 | 41 | 0.0 | 1.6 | 0.00 | 0.43 | 0.18 | 99 | 1016.6 |
| 20260506072305 | 10 | 41 | 0.0 | 1.6 | 0.00 | 0.43 | 0.18 | 99 | 1016.6 |
| 20260506072224 | 10 | 41 | 0.0 | 1.6 | 0.00 | 0.46 | 0.18 | 99 | 1016.5 |
| 20260506072103 | 10 | 41 | 0.0 | 1.6 | 0.00 | 0.46 | 0.18 | 99 | 1016.7 |
| 20260506072003 | 10 | 53 | 0.0 | 4.8 | 0.00 | 0.46 | 0.18 | 99 | 1016.6 |
| 20260506071924 | 10 | 53 | 0.0 | 4.8 | 0.00 | 0.46 | 0.18 | 99 | 1016.6 |
| 20260506071803 | 10 | 51 | 0.0 | 4.8 | 0.00 | 0.46 | 0.18 | 99 | 1016.6 |
| 20260506071703 | 10 | 51 | 1.6 | 4.8 | 0.00 | 0.46 | 0.18 | 99 | 1016.6 |
| 20260506071624 | 10 | 51 | 1.6 | 4.8 | 0.00 | 0.46 | 0.18 | 99 | 1016.6 |
| 20260506071503 | 10 | 51 | 1.6 | 4.8 | 0.00 | 0.46 | 0.18 | 99 | 1016.6 |
| 20260506071403 | 10 | 51 | 1.6 | 4.8 | 0.00 | 0.46 | 0.18 | 99 | 1016.6 |
| 20260506071303 | 10 | 51 | 1.6 | 4.8 | 0.00 | 0.46 | 0.18 | 99 | 1016.6 |
| 20260506071224 | 10 | 51 | 1.6 | 4.8 | 0.00 | 0.46 | 0.18 | 99 | 1016.6 |
| 20260506071103 | 10 | 51 | 1.6 | 4.8 | 0.00 | 0.46 | 0.18 | 99 | 1016.5 |
| 20260506071024 | 10 | 51 | 1.6 | 4.8 | 0.00 | 0.48 | 0.18 | 99 | 1016.7 |
| 20260506070903 | 10 | 42 | 1.6 | 3.2 | 0.00 | 0.48 | 0.18 | 99 | 1016.5 |
| 20260506070803 | 10 | 42 | 1.6 | 3.2 | 0.00 | 0.48 | 0.18 | 99 | 1016.6 |
| 20260506070703 | 10 | 42 | 1.6 | 3.2 | 0.00 | 0.51 | 0.18 | 99 | 1016.6 |
| 20260506070603 | 10 | 43 | 1.6 | 3.2 | 0.00 | 0.51 | 0.18 | 99 | 1016.5 |
| 20260506070503 | 10 | 42 | 1.6 | 1.6 | 0.00 | 0.53 | 0.18 | 99 | 1016.5 |
| 20260506070403 | 10 | 41 | 0.0 | 1.6 | 0.00 | 0.53 | 0.18 | 99 | 1016.5 |
| 20260506070303 | 10 | 40 | 0.0 | 1.6 | 0.00 | 0.53 | 0.18 | 99 | 1016.7 |
| 20260506070203 | 10 | 40 | 0.0 | 1.6 | 0.00 | 0.53 | 0.18 | 99 | 1016.4 |
| 20260506070103 | 10 | 40 | 0.0 | 1.6 | 0.00 | 0.53 | 0.18 | 99 | 1016.5 |
| 20260506062503 | 10 | 39 | 0.0 | 1.6 | 0.00 | 0.66 | 0.18 | 99 | 1016.5 |
| 20260506062403 | 10 | 39 | 0.0 | 1.6 | 0.00 | 0.69 | 0.18 | 99 | 1016.4 |
| 20260506062324 | 10 | 39 | 0.0 | 1.6 | 0.00 | 0.69 | 0.18 | 99 | 1016.4 |
| 20260506062224 | 10 | 39 | 0.0 | 1.6 | 0.00 | 0.69 | 0.18 | 99 | 1016.4 |
| 20260506062103 | 10 | 39 | 0.0 | 1.6 | 0.00 | 0.71 | 0.18 | 99 | 1016.3 |
| 20260506062024 | 10 | 39 | 0.0 | 1.6 | 0.00 | 0.71 | 0.18 | 99 | 1016.2 |
| 20260506061903 | 10 | 39 | 0.0 | 1.6 | 0.00 | 0.71 | 0.18 | 99 | 1016.2 |
| 20260506061824 | 10 | 40 | 0.0 | 1.6 | 0.00 | 0.71 | 0.18 | 99 | 1016.3 |
| 20260506061703 | 10 | 40 | 0.0 | 1.6 | 0.00 | 0.74 | 0.18 | 99 | 1016.1 |
| 20260506061603 | 10 | 40 | 0.0 | 1.6 | 0.00 | 0.74 | 0.18 | 99 | 1016.2 |
| 20260506061524 | 10 | 40 | 0.0 | 1.6 | 0.00 | 0.74 | 0.18 | 99 | 1016.2 |
| 20260506061403 | 10 | 41 | 0.0 | 1.6 | 0.00 | 0.74 | 0.18 | 99 | 1016.2 |
| 20260506061303 | 10 | 41 | 0.0 | 1.6 | 0.00 | 0.74 | 0.18 | 99 | 1016.2 |
| 20260506061224 | 10 | 42 | 0.0 | 1.6 | 0.00 | 0.74 | 0.18 | 99 | 1016.3 |
| 20260506061103 | 10 | 40 | 0.0 | 1.6 | 0.00 | 0.74 | 0.18 | 99 | 1016.1 |
| 20260506061003 | 10 | 40 | 0.0 | 1.6 | 0.00 | 0.74 | 0.18 | 99 | 1016.3 |
| 20260506060903 | 10 | 40 | 0.0 | 1.6 | 0.00 | 0.74 | 0.18 | 99 | 1016.2 |
| 20260506060803 | 10 | 38 | 0.0 | 1.6 | 0.00 | 0.74 | 0.18 | 99 | 1016.3 |
| 20260506060703 | 10 | 38 | 0.0 | 1.6 | 0.00 | 0.74 | 0.18 | 99 | 1016.3 |
| 20260506060603 | 10 | 38 | 0.0 | 1.6 | 0.00 | 0.76 | 0.18 | 99 | 1016.3 |
| 20260506060503 | 10 | 38 | 0.0 | 1.6 | 0.00 | 0.76 | 0.18 | 99 | 1016.3 |
| 20260506060403 | 10 | 42 | 0.0 | 1.6 | 0.00 | 0.76 | 0.18 | 99 | 1016.3 |
| 20260506060303 | 10 | 42 | 0.0 | 1.6 | 0.00 | 0.79 | 0.18 | 99 | 1016.3 |
| 20260506060203 | 10 | 42 | 0.0 | 1.6 | 0.00 | 0.79 | 0.18 | 99 | 1016.3 |
| 20260506051403 | 9 | 40 | 0.0 | 1.6 | 0.00 | 0.97 | 0.18 | 99 | 1016.2 |
| 20260506051303 | 9 | 39 | 0.0 | 1.6 | 0.00 | 0.97 | 0.18 | 99 | 1016.1 |
| 20260506051203 | 9 | 39 | 0.0 | 1.6 | 0.00 | 0.97 | 0.18 | 99 | 1016.3 |
| 20260506051124 | 9 | 39 | 0.0 | 1.6 | 0.00 | 0.97 | 0.18 | 99 | 1016.3 |
| 20260506051003 | 9 | 39 | 0.0 | 1.6 | 0.00 | 0.97 | 0.18 | 99 | 1016.0 |
| 20260506050903 | 9 | 41 | 0.0 | 3.2 | 0.00 | 0.97 | 0.18 | 99 | 1016.2 |
| 20260506050803 | 9 | 41 | 0.0 | 3.2 | 0.00 | 0.97 | 0.18 | 99 | 1016.0 |
| 20260506050703 | 9 | 41 | 0.0 | 3.2 | 0.00 | 0.97 | 0.18 | 99 | 1015.9 |
| 20260506050603 | 9 | 42 | 0.0 | 3.2 | 0.00 | 0.97 | 0.18 | 99 | 1016.0 |
| 20260506050503 | 9 | 43 | 0.0 | 3.2 | 0.00 | 0.97 | 0.18 | 99 | 1016.2 |
| 20260506050403 | 9 | 43 | 0.0 | 3.2 | 0.00 | 0.97 | 0.18 | 99 | 1015.9 |
| 20260506050304 | 9 | 45 | 0.0 | 3.2 | 0.00 | 0.97 | 0.18 | 99 | 1016.0 |
| 20260506050203 | 9 | 45 | 0.0 | 3.2 | 0.00 | 0.97 | 0.18 | 99 | 1016.1 |
| 20260506050124 | 9 | 45 | 0.0 | 3.2 | 0.00 | 0.97 | 0.18 | 99 | 1016.1 |
| 20260506045103 | 9 | 40 | 0.0 | 1.6 | 0.00 | 0.97 | 0.18 | 99 | 1016.0 |
| 20260506045003 | 9 | 40 | 0.0 | 3.2 | 0.00 | 0.97 | 0.18 | 99 | 1016.1 |
| 20260506044903 | 9 | 40 | 0.0 | 3.2 | 0.00 | 0.97 | 0.18 | 99 | 1015.9 |
| 20260506044803 | 9 | 40 | 0.0 | 3.2 | 0.00 | 0.97 | 0.18 | 99 | 1016.1 |
| 20260506044703 | 9 | 40 | 0.0 | 3.2 | 0.00 | 0.97 | 0.18 | 99 | 1016.1 |
| 20260506044603 | 9 | 40 | 0.0 | 3.2 | 0.00 | 0.97 | 0.18 | 99 | 1016.1 |
| 20260506044503 | 9 | 40 | 0.0 | 3.2 | 0.00 | 0.97 | 0.18 | 99 | 1016.1 |
| 20260506044403 | 9 | 42 | 0.0 | 3.2 | 0.00 | 0.97 | 0.18 | 99 | 1016.2 |
| 20260506044324 | 9 | 44 | 1.6 | 3.2 | 0.00 | 0.97 | 0.18 | 99 | 1016.0 |
| 20260506044203 | 9 | 45 | 1.6 | 3.2 | 0.00 | 0.97 | 0.18 | 99 | 1016.1 |
| 20260506044103 | 9 | 45 | 1.6 | 3.2 | 0.00 | 0.97 | 0.18 | 99 | 1016.1 |
| 20260506044003 | 9 | 46 | 1.6 | 3.2 | 0.00 | 0.97 | 0.18 | 99 | 1016.1 |
| 20260506043903 | 9 | 46 | 1.6 | 3.2 | 0.00 | 0.97 | 0.18 | 99 | 1016.0 |
| 20260506043803 | 9 | 45 | 1.6 | 3.2 | 0.00 | 0.97 | 0.18 | 99 | 1016.1 |
| 20260506043703 | 9 | 45 | 1.6 | 4.8 | 0.00 | 0.97 | 0.18 | 99 | 1016.0 |
| 20260506043603 | 9 | 45 | 1.6 | 4.8 | 0.00 | 0.97 | 0.18 | 99 | 1016.0 |
| 20260506043503 | 9 | 45 | 1.6 | 4.8 | 0.00 | 0.97 | 0.18 | 99 | 1016.0 |
| 20260506043403 | 9 | 46 | 1.6 | 4.8 | 0.00 | 0.97 | 0.18 | 99 | 1016.0 |
| 20260506043303 | 9 | 46 | 1.6 | 4.8 | 0.00 | 0.97 | 0.18 | 99 | 1016.1 |
| 20260506043203 | 9 | 45 | 1.6 | 4.8 | 0.00 | 0.97 | 0.18 | 99 | 1016.2 |
| 20260506043103 | 9 | 45 | 1.6 | 4.8 | 0.00 | 0.97 | 0.18 | 99 | 1016.2 |
| 20260506043003 | 9 | 45 | 1.6 | 4.8 | 0.00 | 0.97 | 0.18 | 99 | 1016.1 |
| 20260506042903 | 9 | 45 | 1.6 | 4.8 | 0.00 | 0.97 | 0.18 | 99 | 1016.0 |
| 20260506042803 | 9 | 45 | 1.6 | 4.8 | 0.00 | 0.97 | 0.18 | 99 | 1016.1 |
| 20260506042724 | 9 | 45 | 1.6 | 4.8 | 0.00 | 0.97 | 0.18 | 99 | 1016.2 |
| 20260506042624 | 9 | 46 | 1.6 | 3.2 | 0.00 | 0.97 | 0.18 | 99 | 1015.9 |
| 20260506042503 | 9 | 46 | 1.6 | 3.2 | 0.00 | 0.97 | 0.18 | 99 | 1016.2 |
| 20260506042403 | 9 | 46 | 0.0 | 3.2 | 0.00 | 0.97 | 0.18 | 99 | 1016.1 |
| 20260506042305 | 9 | 46 | 0.0 | 3.2 | 0.00 | 0.97 | 0.18 | 99 | 1016.1 |
| 20260506042203 | 9 | 41 | 0.0 | 3.2 | 0.00 | 0.97 | 0.18 | 99 | 1016.2 |
| 20260506042103 | 9 | 40 | 0.0 | 3.2 | 0.00 | 0.97 | 0.18 | 99 | 1016.2 |
| 20260506042003 | 9 | 39 | 0.0 | 1.6 | 0.00 | 0.97 | 0.18 | 99 | 1016.2 |
| 20260506041903 | 9 | 39 | 0.0 | 1.6 | 0.00 | 0.97 | 0.18 | 99 | 1016.2 |
| 20260506041803 | 9 | 38 | 0.0 | 1.6 | 0.00 | 0.97 | 0.18 | 99 | 1016.1 |
| 20260506041724 | 9 | 38 | 0.0 | 1.6 | 0.00 | 0.97 | 0.18 | 99 | 1016.2 |
| 20260506041624 | 9 | 38 | 0.0 | 1.6 | 0.00 | 0.97 | 0.18 | 99 | 1016.1 |
| 20260506041503 | 9 | 38 | 0.0 | 1.6 | 0.00 | 0.97 | 0.18 | 99 | 1016.2 |
| 20260506041403 | 9 | 38 | 0.0 | 1.6 | 0.00 | 0.97 | 0.18 | 99 | 1016.2 |
| 20260506041324 | 9 | 38 | 0.0 | 1.6 | 0.00 | 0.97 | 0.18 | 99 | 1016.2 |
| 20260506041203 | 9 | 38 | 0.0 | 1.6 | 0.00 | 0.97 | 0.18 | 99 | 1016.2 |
| 20260506041103 | 9 | 39 | 0.0 | 1.6 | 0.00 | 0.97 | 0.18 | 99 | 1016.3 |
| 20260506041024 | 9 | 40 | 0.0 | 1.6 | 0.00 | 0.97 | 0.18 | 99 | 1016.4 |
| 20260506040903 | 9 | 37 | 0.0 | 1.6 | 0.00 | 0.97 | 0.18 | 99 | 1016.3 |
| 20260506040803 | 9 | 0 | 0.0 | 0.0 | 0.00 | 0.97 | 0.18 | 99 | 1016.1 |
| 20260506040703 | 9 | 0 | 0.0 | 0.0 | 0.00 | 0.97 | 0.18 | 99 | 1016.3 |
| 20260506040624 | 9 | 0 | 0.0 | 0.0 | 0.00 | 0.97 | 0.18 | 99 | 1016.3 |
| 20260506040503 | 9 | 0 | 0.0 | 0.0 | 0.00 | 0.97 | 0.18 | 99 | 1016.3 |
| 20260506040403 | 9 | 0 | 0.0 | 0.0 | 0.00 | 0.97 | 0.18 | 99 | 1016.3 |
| 20260506040303 | 9 | 0 | 0.0 | 0.0 | 0.00 | 0.97 | 0.18 | 99 | 1016.3 |
| 20260506040203 | 9 | 0 | 0.0 | 0.0 | 0.00 | 0.97 | 0.18 | 99 | 1016.3 |
| 20260506040003 | 9 | 0 | 0.0 | 0.0 | 0.00 | 0.97 | 0.18 | 99 | 1016.1 |
| 20260506035903 | 9 | 0 | 0.0 | 0.0 | 0.00 | 0.97 | 0.18 | 99 | 1016.1 |
| 20260506035803 | 9 | 0 | 0.0 | 0.0 | 0.00 | 0.97 | 0.18 | 99 | 1016.2 |
| 20260506035703 | 9 | 37 | 0.0 | 1.6 | 0.00 | 0.97 | 0.18 | 99 | 1016.3 |
| 20260506035603 | 9 | 37 | 0.0 | 1.6 | 0.00 | 0.97 | 0.18 | 99 | 1016.4 |
| 20260506035503 | 9 | 37 | 0.0 | 1.6 | 0.00 | 0.97 | 0.18 | 99 | 1016.2 |
| 20260506035403 | 9 | 37 | 0.0 | 1.6 | 0.00 | 0.97 | 0.18 | 99 | 1016.1 |
| 20260506035305 | 9 | 37 | 0.0 | 1.6 | 0.00 | 0.97 | 0.18 | 99 | 1016.3 |
| 20260506035203 | 9 | 37 | 0.0 | 1.6 | 0.00 | 0.97 | 0.18 | 99 | 1016.5 |
| 20260506035103 | 9 | 37 | 0.0 | 1.6 | 0.00 | 0.97 | 0.18 | 99 | 1016.4 |
| 20260506035003 | 9 | 37 | 0.0 | 1.6 | 0.00 | 0.97 | 0.18 | 99 | 1016.1 |
| 20260506034903 | 9 | 37 | 0.0 | 1.6 | 0.00 | 0.97 | 0.18 | 99 | 1016.4 |
| 20260506034824 | 9 | 37 | 0.0 | 1.6 | 0.00 | 0.97 | 0.18 | 99 | 1016.4 |
| 20260506034703 | 9 | 37 | 0.0 | 1.6 | 0.00 | 0.97 | 0.18 | 99 | 1016.4 |
| 20260506034624 | 9 | 38 | 0.0 | 1.6 | 0.00 | 0.97 | 0.18 | 99 | 1016.4 |
| 20260506034524 | 9 | 38 | 0.0 | 1.6 | 0.00 | 0.97 | 0.18 | 99 | 1016.3 |
| 20260506034403 | 9 | 0 | 0.0 | 0.0 | 0.00 | 0.97 | 0.18 | 99 | 1016.4 |
| 20260506034303 | 9 | 0 | 0.0 | 0.0 | 0.00 | 0.97 | 0.18 | 99 | 1016.4 |
| 20260506034203 | 9 | 0 | 0.0 | 0.0 | 0.00 | 0.97 | 0.18 | 99 | 1016.2 |
| 20260506034103 | 9 | 0 | 0.0 | 0.0 | 0.00 | 0.97 | 0.18 | 99 | 1016.3 |
| 20260506034003 | 9 | 0 | 0.0 | 0.0 | 0.00 | 0.97 | 0.18 | 99 | 1016.3 |
| 20260506033924 | 9 | 0 | 0.0 | 0.0 | 0.00 | 0.97 | 0.18 | 99 | 1016.3 |
| 20260506033803 | 9 | 0 | 0.0 | 0.0 | 0.00 | 0.97 | 0.18 | 99 | 1016.2 |
| 20260506033703 | 9 | 0 | 0.0 | 0.0 | 0.00 | 0.97 | 0.18 | 99 | 1016.4 |
| 20260506033603 | 9 | 0 | 0.0 | 0.0 | 0.00 | 0.97 | 0.18 | 99 | 1016.6 |
| 20260506033503 | 9 | 38 | 0.0 | 1.6 | 0.00 | 0.97 | 0.18 | 99 | 1016.3 |
| 20260506033424 | 9 | 38 | 0.0 | 1.6 | 0.00 | 0.97 | 0.18 | 99 | 1016.3 |
| 20260506033303 | 9 | 38 | 0.0 | 1.6 | 0.00 | 0.97 | 0.18 | 99 | 1016.4 |
| 20260506033203 | 9 | 38 | 0.0 | 1.6 | 0.00 | 0.97 | 0.18 | 99 | 1016.3 |
| 20260506033103 | 9 | 38 | 0.0 | 1.6 | 0.00 | 0.97 | 0.18 | 99 | 1016.3 |
| 20260506033003 | 9 | 38 | 0.0 | 1.6 | 0.00 | 0.97 | 0.18 | 99 | 1016.2 |
| 20260506032903 | 9 | 38 | 0.0 | 1.6 | 0.00 | 0.97 | 0.18 | 99 | 1016.7 |
| 20260506032803 | 9 | 38 | 0.0 | 1.6 | 0.03 | 0.97 | 0.18 | 99 | 1016.3 |
| 20260506032703 | 9 | 38 | 0.0 | 1.6 | 0.03 | 0.97 | 0.18 | 99 | 1016.4 |
| 20260506032603 | 9 | 38 | 0.0 | 1.6 | 0.03 | 0.97 | 0.18 | 99 | 1016.3 |
| 20260506032524 | 9 | 38 | 0.0 | 1.6 | 0.03 | 0.97 | 0.18 | 99 | 1016.4 |
| 20260506032403 | 9 | 0 | 0.0 | 0.0 | 0.03 | 0.97 | 0.18 | 99 | 1016.4 |
| 20260506032305 | 9 | 0 | 0.0 | 0.0 | 0.03 | 0.97 | 0.18 | 99 | 1016.5 |
| 20260506032203 | 9 | 0 | 0.0 | 0.0 | 0.03 | 0.97 | 0.18 | 99 | 1016.5 |
| 20260506032103 | 9 | 0 | 0.0 | 0.0 | 0.03 | 0.97 | 0.18 | 99 | 1016.6 |
| 20260506032003 | 9 | 0 | 0.0 | 0.0 | 0.05 | 0.97 | 0.18 | 99 | 1016.6 |
| 20260506031924 | 9 | 0 | 0.0 | 0.0 | 0.05 | 0.97 | 0.18 | 99 | 1016.6 |
| 20260506031803 | 9 | 0 | 0.0 | 0.0 | 0.05 | 0.97 | 0.18 | 99 | 1016.5 |
| 20260506031703 | 9 | 0 | 0.0 | 0.0 | 0.05 | 0.97 | 0.18 | 99 | 1016.5 |
| 20260506031603 | 9 | 0 | 0.0 | 0.0 | 0.05 | 0.97 | 0.18 | 99 | 1016.4 |
| 20260506031503 | 9 | 0 | 0.0 | 0.0 | 0.05 | 0.97 | 0.18 | 99 | 1016.4 |
| 20260506031403 | 9 | 0 | 0.0 | 0.0 | 0.08 | 0.97 | 0.18 | 99 | 1016.4 |
| 20260506031303 | 9 | 37 | 0.0 | 1.6 | 0.08 | 0.97 | 0.18 | 99 | 1016.5 |
| 20260506031203 | 9 | 37 | 0.0 | 1.6 | 0.08 | 0.97 | 0.18 | 99 | 1016.3 |
| 20260506031103 | 9 | 38 | 0.0 | 1.6 | 0.08 | 0.97 | 0.18 | 99 | 1016.6 |
| 20260506031003 | 9 | 38 | 0.0 | 1.6 | 0.08 | 0.97 | 0.18 | 99 | 1016.5 |
| 20260506030903 | 9 | 38 | 0.0 | 1.6 | 0.08 | 0.97 | 0.18 | 99 | 1016.5 |
| 20260506030803 | 9 | 38 | 0.0 | 1.6 | 0.08 | 0.97 | 0.18 | 99 | 1016.4 |
| 20260506030703 | 9 | 38 | 0.0 | 1.6 | 0.08 | 0.97 | 0.18 | 99 | 1016.4 |
| 20260506030603 | 9 | 38 | 0.0 | 1.6 | 0.08 | 0.97 | 0.18 | 99 | 1016.6 |
| 20260506030503 | 9 | 38 | 0.0 | 1.6 | 0.08 | 0.97 | 0.18 | 99 | 1016.5 |
| 20260506030404 | 9 | 38 | 0.0 | 1.6 | 0.10 | 0.97 | 0.18 | 99 | 1016.6 |
| 20260506030303 | 9 | 38 | 0.0 | 1.6 | 0.10 | 0.97 | 0.18 | 99 | 1016.5 |
| 20260506030203 | 9 | 38 | 1.6 | 1.6 | 0.10 | 0.97 | 0.18 | 99 | 1016.5 |
| 20260506030103 | 9 | 37 | 1.6 | 3.2 | 0.10 | 0.97 | 0.18 | 99 | 1016.6 |
| 20260506030003 | 9 | 48 | 1.6 | 3.2 | 0.10 | 0.97 | 0.18 | 99 | 1016.5 |
| 20260506025903 | 9 | 48 | 1.6 | 3.2 | 0.10 | 0.97 | 0.18 | 99 | 1016.5 |
| 20260506025803 | 9 | 46 | 1.6 | 3.2 | 0.10 | 0.97 | 0.18 | 99 | 1016.6 |
| 20260506025703 | 9 | 46 | 1.6 | 3.2 | 0.10 | 0.97 | 0.18 | 99 | 1016.7 |
| 20260506025603 | 9 | 47 | 1.6 | 3.2 | 0.13 | 0.97 | 0.18 | 99 | 1016.6 |
| 20260506025503 | 9 | 48 | 1.6 | 3.2 | 0.13 | 0.97 | 0.18 | 99 | 1016.6 |
| 20260506025403 | 9 | 48 | 1.6 | 3.2 | 0.15 | 0.97 | 0.18 | 99 | 1016.6 |
| 20260506025324 | 9 | 47 | 1.6 | 3.2 | 0.15 | 0.97 | 0.18 | 99 | 1016.5 |
| 20260506025203 | 9 | 46 | 1.6 | 3.2 | 0.15 | 0.97 | 0.18 | 99 | 1016.6 |
| 20260506025103 | 9 | 48 | 1.6 | 3.2 | 0.15 | 0.97 | 0.18 | 99 | 1016.6 |
| 20260506025003 | 9 | 52 | 0.0 | 3.2 | 0.18 | 0.97 | 0.18 | 99 | 1016.6 |
| 20260506024903 | 9 | 28 | 0.0 | 1.6 | 0.18 | 0.97 | 0.18 | 99 | 1016.7 |
| 20260506024803 | 9 | 29 | 0.0 | 1.6 | 0.18 | 0.97 | 0.18 | 99 | 1016.5 |
| 20260506024703 | 9 | 29 | 0.0 | 1.6 | 0.18 | 0.97 | 0.18 | 99 | 1016.6 |
| 20260506024624 | 9 | 29 | 0.0 | 1.6 | 0.18 | 0.97 | 0.18 | 99 | 1016.6 |
| 20260506024503 | 9 | 29 | 0.0 | 1.6 | 0.18 | 0.97 | 0.18 | 99 | 1016.6 |
| 20260506024403 | 9 | 29 | 0.0 | 1.6 | 0.18 | 0.97 | 0.18 | 99 | 1016.6 |
| 20260506024303 | 9 | 29 | 0.0 | 1.6 | 0.18 | 0.97 | 0.18 | 99 | 1016.6 |
| 20260506024203 | 9 | 0 | 0.0 | 0.0 | 0.18 | 0.97 | 0.18 | 99 | 1016.5 |
| 20260506024103 | 9 | 30 | 0.0 | 1.6 | 0.18 | 0.97 | 0.18 | 99 | 1016.4 |
| 20260506024003 | 9 | 30 | 0.0 | 1.6 | 0.18 | 0.97 | 0.18 | 99 | 1016.6 |
| 20260506023903 | 9 | 30 | 0.0 | 1.6 | 0.18 | 0.97 | 0.18 | 99 | 1016.6 |
| 20260506023803 | 9 | 29 | 0.0 | 1.6 | 0.18 | 0.97 | 0.18 | 99 | 1016.4 |
| 20260506023704 | 9 | 29 | 0.0 | 1.6 | 0.18 | 0.97 | 0.18 | 99 | 1016.6 |
| 20260506023603 | 10 | 29 | 0.0 | 1.6 | 0.18 | 0.97 | 0.18 | 99 | 1016.7 |
| 20260506023525 | 10 | 29 | 0.0 | 1.6 | 0.18 | 0.97 | 0.18 | 99 | 1016.7 |
| 20260506023403 | 10 | 29 | 0.0 | 1.6 | 0.18 | 0.97 | 0.18 | 99 | 1016.8 |
| 20260506023303 | 10 | 29 | 0.0 | 1.6 | 0.18 | 0.97 | 0.18 | 99 | 1016.7 |
| 20260506023203 | 10 | 29 | 0.0 | 1.6 | 0.18 | 0.97 | 0.18 | 99 | 1016.6 |
| 20260506023103 | 10 | 29 | 0.0 | 1.6 | 0.18 | 0.97 | 0.18 | 99 | 1016.7 |
| 20260506023003 | 10 | 29 | 0.0 | 1.6 | 0.18 | 0.97 | 0.18 | 99 | 1016.6 |
| 20260506022903 | 10 | 29 | 0.0 | 1.6 | 0.18 | 0.97 | 0.18 | 99 | 1016.7 |
| 20260506022803 | 10 | 29 | 0.0 | 1.6 | 0.15 | 0.94 | 0.15 | 99 | 1016.6 |
| 20260506022704 | 10 | 0 | 0.0 | 0.0 | 0.15 | 0.94 | 0.15 | 99 | 1016.6 |
| 20260506022603 | 10 | 0 | 0.0 | 0.0 | 0.15 | 0.94 | 0.15 | 99 | 1016.4 |
| 20260506022503 | 10 | 0 | 0.0 | 0.0 | 0.15 | 0.94 | 0.15 | 99 | 1016.4 |
| 20260506022424 | 10 | 0 | 0.0 | 0.0 | 0.15 | 0.94 | 0.15 | 99 | 1016.4 |
| 20260506022324 | 10 | 0 | 0.0 | 0.0 | 0.15 | 0.94 | 0.15 | 99 | 1016.7 |
| 20260506022203 | 10 | 0 | 0.0 | 0.0 | 0.15 | 0.94 | 0.15 | 99 | 1016.6 |
| 20260506022124 | 10 | 0 | 0.0 | 0.0 | 0.15 | 0.94 | 0.15 | 99 | 1016.6 |
| 20260506022003 | 10 | 0 | 0.0 | 0.0 | 0.13 | 0.91 | 0.15 | 99 | 1016.5 |
| 20260506021925 | 10 | 0 | 0.0 | 0.0 | 0.13 | 0.91 | 0.13 | 99 | 1016.6 |
| 20260506021803 | 10 | 0 | 0.0 | 0.0 | 0.13 | 0.91 | 0.13 | 99 | 1016.5 |
| 20260506021703 | 10 | 0 | 0.0 | 0.0 | 0.13 | 0.91 | 0.13 | 99 | 1016.6 |
| 20260506021603 | 10 | 0 | 0.0 | 0.0 | 0.13 | 0.91 | 0.13 | 99 | 1016.6 |
| 20260506021503 | 10 | 0 | 0.0 | 0.0 | 0.13 | 0.91 | 0.13 | 99 | 1016.8 |
| 20260506021303 | 10 | 0 | 0.0 | 0.0 | 0.10 | 0.89 | 0.10 | 99 | 1016.8 |
| 20260506021203 | 10 | 0 | 0.0 | 0.0 | 0.10 | 0.89 | 0.10 | 99 | 1016.7 |
| 20260506021103 | 10 | 0 | 0.0 | 0.0 | 0.10 | 0.89 | 0.10 | 99 | 1016.7 |
| 20260506021003 | 10 | 0 | 0.0 | 0.0 | 0.10 | 0.89 | 0.10 | 99 | 1016.8 |
| 20260506020924 | 10 | 0 | 0.0 | 0.0 | 0.10 | 0.89 | 0.10 | 99 | 1016.8 |
| 20260506020803 | 10 | 0 | 0.0 | 0.0 | 0.10 | 0.89 | 0.10 | 99 | 1016.8 |
| 20260506020703 | 10 | 0 | 0.0 | 0.0 | 0.10 | 0.89 | 0.10 | 99 | 1016.8 |
| 20260506020603 | 10 | 0 | 0.0 | 0.0 | 0.10 | 0.89 | 0.10 | 99 | 1016.9 |
| 20260506020503 | 10 | 0 | 0.0 | 0.0 | 0.10 | 0.89 | 0.10 | 99 | 1016.8 |
| 20260506020403 | 10 | 0 | 0.0 | 0.0 | 0.08 | 0.86 | 0.10 | 99 | 1016.9 |